GFSFLT2_sfc_thetae_000.txt.gz
Theta_e
343 342 343 342 340 340 340 340 340 340 339 338 337 336 334 332 331 331 330 329 330 331 332 331 331 331 331 330 329 328 317 318
340 342 343 337 336 338 338 338 338 338 338 336 335 335 334 333 333 330 332 332 332 332 332 332 331 331 330 330 329 321 313 314
339 338 337 333 332 335 337 338 337 336 336 335 331 327 325 326 331 333 333 332 332 333 333 332 331 330 328 328 327 314 311 313
334 330 330 330 335 331 329 330 329 329 330 329 327 326 325 328 329 332 333 333 334 333 333 333 330 322 321 323 318 315 311 310
327 327 327 327 328 326 325 326 326 326 327 325 325 326 324 324 324 322 321 327 323 323 322 322 320 319 319 318 317 316 312 311
326 325 324 324 324 324 323 324 324 325 326 326 323 322 320 318 318 316 314 314 313 314 315 316 316 315 313 313 314 314 312 310
322 323 323 323 322 323 322 323 325 325 325 325 322 319 314 314 312 312 312 313 312 311 311 311 310 310 310 310 310 310 309 309
323 323 321 319 320 321 321 322 324 325 324 321 319 316 314 313 310 309 308 309 309 309 309 308 307 307 306 307 307 307 307 308
321 321 322 321 321 321 321 321 322 322 318 316 316 313 310 307 306 305 305 306 306 305 305 303 302 302 302 303 303 304 304 308
324 327 325 324 320 320 318 315 316 316 314 313 310 307 306 304 305 304 304 303 301 302 302 299 300 299 298 299 299 302 302 307
323 325 323 321 318 315 314 311 309 309 309 306 305 305 305 303 303 303 301 300 299 299 299 299 298 298 299 299 298 299 301 306
319 318 315 314 313 314 313 310 308 309 306 304 305 305 306 305 301 300 299 298 297 297 297 297 297 297 300 298 297 297 301 302
314 314 314 311 307 308 309 307 309 305 303 302 302 301 300 300 299 299 299 297 296 297 296 296 296 297 295 295 296 297 298 300
308 308 307 307 307 306 309 308 304 302 301 298 299 299 299 300 299 298 297 297 296 296 295 295 295 296 294 293 290 293 295 296
303 303 303 304 307 305 302 301 301 298 298 295 297 298 298 298 298 298 296 296 295 295 294 294 293 293 293 292 288 286 289 293
300 301 301 301 301 301 299 298 296 296 295 294 295 297 297 298 297 296 295 295 296 295 294 292 292 288 291 293 291 290 286 286
299 300 300 300 299 299 298 294 295 295 293 294 294 296 296 296 296 296 296 294 293 292 291 289 290 288 288 288 288 288 288 286
298 299 297 298 297 296 295 295 294 293 294 294 295 294 295 295 295 294 293 292 291 290 289 289 288 288 288 287 287 285 285 285
297 295 295 295 295 295 295 294 293 294 294 293 294 295 294 294 293 292 292 291 291 290 288 287 286 285 285 285 286 285 287 286
294 294 293 294 294 294 294 294 294 295 295 294 294 293 292 292 292 291 290 293 291 292 290 287 286 285 284 283 284 285 285 285

GFSFLT2_sfc_thetae_003.txt.gz
Theta_e
345 346 346 342 340 340 340 340 340 340 340 338 337 335 334 332 332 333 333 332 333 333 333 333 333 334 333 332 331 327 323 322
343 346 345 346 346 338 339 339 339 339 338 337 335 334 334 333 333 331 334 334 334 335 334 334 334 334 332 331 331 327 326 324
342 341 343 345 345 342 339 338 338 337 337 335 334 336 334 334 332 333 334 334 334 335 335 334 333 332 330 330 329 328 328 325
339 339 340 341 341 341 340 338 337 336 336 336 336 336 336 334 334 333 334 333 334 333 332 332 332 332 331 328 326 327 326 326
335 337 339 338 338 338 336 335 334 335 335 335 335 335 337 338 337 336 335 331 329 326 326 328 329 328 325 324 322 322 321 320
336 335 335 334 334 333 332 331 332 332 334 335 335 334 334 331 329 327 326 325 324 323 323 324 323 320 319 319 317 314 312 314
330 330 330 330 329 330 330 330 332 333 334 335 334 332 330 327 324 322 321 321 319 319 320 318 316 315 315 313 312 311 312 312
328 326 328 328 328 329 329 326 327 331 331 325 325 327 326 319 317 316 316 317 316 316 314 312 311 310 310 311 310 310 310 315
326 327 329 329 328 329 327 322 322 321 322 322 319 317 317 315 316 314 314 314 313 312 310 311 309 307 307 307 308 309 309 314
326 328 327 325 324 319 317 315 317 317 318 318 315 314 315 315 313 312 311 310 310 310 309 308 307 306 305 306 306 307 313 313
327 326 324 318 317 313 313 314 312 312 313 311 311 310 311 313 311 310 310 309 308 307 306 305 304 304 302 305 304 305 312 311
323 322 316 315 319 316 316 314 312 311 308 307 308 309 310 311 310 310 309 308 307 306 304 304 305 304 301 302 303 306 312 310
321 319 317 317 315 315 316 315 313 308 307 308 308 308 309 310 308 308 308 307 307 306 304 302 302 304 301 300 300 306 308 307
321 319 315 315 316 317 317 315 310 307 306 306 306 307 307 307 308 308 308 307 307 306 303 300 302 303 297 296 294 296 301 303
317 315 314 313 313 312 310 309 309 307 305 305 305 307 307 307 308 308 308 307 306 305 303 300 298 300 300 295 291 290 294 298
311 310 309 307 308 309 308 306 305 305 304 305 306 307 307 306 307 307 307 307 304 303 301 300 298 294 296 297 296 294 288 287
307 307 305 305 306 306 305 304 304 305 305 305 305 306 305 305 305 305 305 304 303 302 300 297 296 293 292 292 291 291 291 288
306 304 302 304 304 303 304 303 302 302 303 303 303 304 305 305 304 304 304 303 301 299 298 295 294 293 293 291 289 287 286 287
302 302 301 302 302 302 302 301 301 300 300 300 300 300 301 303 303 302 302 300 298 299 297 295 294 292 291 290 291 290 290 289
301 301 299 299 299 298 297 296 295 295 295 296 296 297 298 301 302 300 299 298 298 297 296 295 295 293 292 292 291 291 292 291

GFSFLT2_sfc_thetae_006.txt.gz
Theta_e
345 344 344 341 341 341 340 341 341 340 339 337 335 334 333 333 333 333 333 332 333 333 333 334 334 334 333 332 331 329 327 324
345 345 346 346 346 340 340 340 339 339 337 335 334 334 333 333 331 333 334 334 334 335 335 335 334 334 333 331 330 331 326 325
342 342 344 344 344 342 339 339 337 337 336 335 333 336 335 332 332 333 334 335 335 335 334 333 333 333 332 329 328 324 325 324
341 342 341 343 339 340 338 335 335 335 336 338 338 338 338 335 334 333 333 333 334 330 329 329 330 328 327 327 323 324 323 323
337 338 340 339 337 335 332 332 334 336 338 339 339 339 339 336 334 334 335 329 330 327 327 325 327 326 324 324 322 320 318 319
336 336 337 337 332 331 332 332 336 336 338 340 339 337 337 332 331 331 332 330 326 325 324 325 324 322 322 320 319 317 316 317
334 334 333 332 333 334 335 336 337 340 342 339 337 330 330 330 330 328 326 326 324 323 321 319 318 317 318 317 316 316 315 316
332 330 333 335 336 336 332 331 332 334 339 336 330 329 326 327 324 322 323 323 322 319 317 315 315 315 314 315 314 314 313 316
330 333 335 333 332 331 330 329 328 331 335 333 329 327 324 322 320 321 321 320 318 317 315 315 313 313 313 312 313 313 312 315
330 331 332 330 329 322 321 323 326 328 325 324 323 317 320 320 318 316 314 314 314 314 313 312 311 311 310 310 311 311 311 315
330 331 327 323 324 321 322 320 319 318 317 316 314 313 315 317 316 316 316 315 314 312 311 310 308 308 308 308 309 309 310 310
331 329 329 330 330 324 321 319 317 317 315 315 314 315 315 318 316 315 313 312 311 310 309 310 308 308 306 306 309 308 308 310
330 328 329 329 326 323 321 320 318 315 315 314 313 313 313 313 313 313 312 311 311 311 309 308 307 308 304 303 303 304 306 307
328 328 328 325 323 322 323 324 318 314 314 313 312 311 311 311 313 312 312 310 311 310 308 305 304 306 301 299 296 298 301 304
328 326 322 320 319 319 317 317 316 316 314 313 312 312 311 311 311 311 311 310 308 308 307 304 301 302 302 298 294 292 295 299
323 319 317 315 315 315 314 312 311 310 311 312 311 312 311 310 310 311 310 309 307 307 305 304 301 297 299 299 298 296 291 290
317 314 313 313 313 314 312 310 310 310 310 309 309 310 310 309 309 309 308 307 307 306 304 301 300 298 297 296 296 294 294 290
314 312 311 311 311 311 310 308 306 304 302 301 301 301 301 303 303 307 308 308 307 305 304 300 299 297 296 294 292 291 290 289
311 310 308 310 309 307 305 302 301 299 299 298 298 298 299 300 302 304 306 307 305 303 301 299 298 296 294 293 293 292 292 291
310 309 307 306 303 301 301 301 300 300 300 299 299 298 300 303 304 306 306 304 300 300 301 299 297 296 294 294 293 293 293 292

GFSFLT2_sfc_thetae_009.txt.gz
Theta_e
341 342 342 340 338 340 340 341 340 339 338 336 333 333 333 333 334 334 334 334 334 334 335 335 335 334 333 332 331 332 329 324
343 343 343 344 342 338 339 339 338 338 336 334 334 334 334 333 332 335 335 335 335 336 335 335 334 334 333 330 330 330 323 323
342 341 342 342 342 340 338 339 338 336 335 334 333 334 334 332 333 333 334 334 334 335 332 330 331 333 334 329 329 321 322 321
340 340 340 341 335 337 334 331 332 333 335 335 334 336 334 329 331 334 335 334 333 333 330 331 329 325 325 330 321 321 319 318
338 339 339 337 334 331 329 328 331 335 338 336 337 336 336 333 332 332 333 331 329 327 326 326 326 324 322 322 320 319 317 317
335 335 335 334 330 329 329 332 334 334 336 336 337 334 335 333 331 331 331 329 327 326 325 325 323 321 319 319 318 317 316 316
332 333 333 333 333 334 335 336 336 338 338 338 336 333 331 329 328 327 329 326 325 325 323 320 318 318 317 316 315 316 316 314
331 330 332 335 336 336 333 333 333 333 337 338 335 332 330 328 327 326 324 324 323 321 318 316 315 316 315 316 314 314 315 315
330 334 336 335 333 331 330 329 328 330 332 336 337 333 331 328 322 322 323 320 318 317 316 315 314 314 314 313 313 313 313 313
331 333 333 332 330 325 327 328 328 326 325 326 323 319 320 321 320 319 317 318 317 316 315 313 313 311 311 311 311 311 311 313
330 333 331 331 329 330 328 327 323 321 319 319 319 318 318 320 319 319 318 316 315 314 313 312 311 310 310 310 311 310 311 309
332 331 330 331 331 328 324 322 321 320 318 318 318 318 317 318 318 317 315 314 314 314 313 313 311 310 307 307 309 307 307 307
332 330 330 330 327 324 322 321 320 318 317 317 317 316 315 315 315 315 315 313 313 313 312 310 308 308 304 304 303 306 307 305
331 330 330 327 324 323 324 323 319 317 317 316 316 315 315 314 314 313 313 311 312 311 310 307 305 305 301 300 295 297 300 303
329 329 326 324 323 321 319 319 318 316 315 315 314 314 314 313 313 312 311 310 307 309 307 306 301 302 303 298 293 291 294 298
327 325 322 320 318 318 317 315 313 313 313 313 312 312 311 309 308 308 309 308 307 306 306 305 303 299 300 300 300 297 291 290
324 321 317 317 317 318 315 313 312 312 309 306 305 305 304 303 303 304 306 306 307 307 306 305 302 300 298 297 296 295 294 291
319 316 315 315 315 315 313 309 305 304 302 301 301 301 301 302 302 303 304 304 306 306 305 303 301 300 298 296 293 291 290 290
316 314 312 314 313 309 306 305 303 302 301 300 300 300 300 301 303 304 304 305 306 304 302 301 300 298 297 295 294 293 293 292
314 313 312 310 306 305 304 303 302 302 301 301 300 299 300 301 303 304 304 304 303 302 301 301 300 298 296 295 294 293 293 292

GFSFLT2_sfc_thetae_012.txt.gz
Theta_e
336 337 341 340 339 339 339 339 339 338 337 335 335 335 336 336 337 337 337 336 337 337 337 336 336 335 334 332 331 330 323 320
336 337 338 339 337 337 337 337 336 336 335 334 334 334 335 335 336 337 336 335 335 336 333 332 333 333 333 332 330 328 315 317
337 336 338 339 338 337 337 337 336 335 334 333 331 331 332 332 334 334 335 333 333 333 331 330 331 331 333 333 332 316 315 314
335 337 336 337 334 335 333 331 330 331 331 331 332 333 328 328 333 334 335 332 332 333 331 332 330 320 320 328 316 316 314 313
336 336 338 335 332 331 328 330 331 335 334 335 334 335 333 332 331 332 330 331 327 327 325 324 321 319 317 316 316 313 311 311
335 334 332 330 328 327 329 330 333 333 335 333 334 334 332 330 328 326 325 326 325 323 321 322 318 317 315 314 314 311 311 311
330 332 332 332 331 334 335 334 335 335 335 335 334 330 327 326 325 324 325 325 322 318 315 314 313 312 312 312 311 310 311 311
330 329 332 334 334 332 331 331 331 331 334 335 333 330 327 325 324 319 320 317 316 315 314 312 312 311 311 312 311 310 310 311
327 330 336 334 332 331 329 324 327 329 331 332 332 324 323 319 317 319 316 316 315 313 312 310 309 310 309 309 309 308 308 309
329 332 333 331 326 325 326 328 327 322 323 321 319 318 318 318 317 316 315 314 312 311 310 309 308 307 307 306 307 306 305 306
331 332 330 326 328 327 328 326 320 318 319 318 318 317 318 317 316 316 314 313 312 311 310 309 307 306 307 304 304 303 303 304
331 331 330 328 330 325 324 321 320 319 317 317 317 315 317 315 315 313 312 311 310 310 309 308 307 305 304 302 301 301 301 302
329 329 329 329 326 320 320 318 318 316 315 316 315 314 314 313 312 312 312 309 309 308 307 305 304 303 298 297 298 298 297 298
329 328 329 329 325 323 323 318 316 315 315 314 314 314 313 311 311 309 309 307 307 306 303 302 301 301 295 295 291 293 295 296
329 326 328 324 322 320 318 317 316 314 313 313 313 313 311 309 308 307 307 306 304 303 302 301 298 298 298 293 289 287 290 293
327 327 321 321 321 317 316 312 309 311 311 309 307 306 304 302 302 303 302 304 303 303 302 301 299 295 296 298 294 291 287 285
326 321 318 318 318 317 314 311 311 308 304 303 302 302 302 302 301 302 301 301 301 303 303 301 299 296 293 292 291 290 289 285
320 316 315 316 315 313 310 306 303 302 300 299 299 300 300 301 302 301 302 302 301 302 300 298 297 295 295 294 291 288 286 285
316 313 312 314 312 307 306 304 302 301 300 299 298 297 298 299 299 300 301 302 302 300 298 297 296 294 294 292 291 290 289 288
314 312 311 311 307 304 305 304 302 301 301 299 298 297 297 298 299 300 301 301 299 299 298 297 297 295 292 292 290 291 290 288

GFSFLT2_sfc_thetae_015.txt.gz
Theta_e
335 338 335 338 337 337 337 338 337 335 336 336 336 336 337 338 338 338 337 336 335 335 334 333 334 333 332 332 331 330 315 318
332 335 336 336 336 335 335 335 334 333 334 333 333 334 336 336 335 336 335 333 333 334 332 331 331 331 331 331 331 323 311 314
331 331 334 333 334 335 335 335 333 333 333 332 330 328 329 332 332 334 333 331 331 332 331 330 330 328 330 330 326 312 310 312
326 331 333 334 334 331 329 330 329 327 327 328 327 327 326 329 331 332 333 331 331 330 330 330 327 315 315 320 312 310 309 312
329 332 334 331 329 329 326 325 326 328 327 327 328 329 328 327 325 325 325 328 324 324 319 317 313 312 311 311 310 308 307 308
331 333 333 327 330 327 323 324 328 328 328 329 329 326 324 322 321 321 320 321 316 315 315 313 310 310 309 309 308 306 307 307
328 326 325 323 325 329 328 328 329 331 330 330 328 324 321 321 319 318 315 313 312 311 311 309 308 309 308 309 308 307 307 307
324 324 325 329 325 325 322 324 324 327 329 328 326 324 322 317 314 314 311 311 310 309 307 306 306 306 306 307 306 305 304 304
322 324 327 325 324 323 320 322 324 324 320 320 320 318 315 312 313 311 309 309 307 307 306 307 306 307 305 306 305 303 303 302
322 331 326 323 320 319 321 321 317 317 315 314 314 314 313 312 310 309 309 309 308 307 306 305 305 304 303 302 301 301 301 300
326 325 321 319 320 322 320 314 313 313 313 311 311 312 312 311 310 309 308 307 307 307 305 304 303 302 301 298 298 298 298 301
326 323 321 322 322 318 317 313 312 311 309 310 310 310 310 309 309 308 308 306 305 304 303 303 303 300 301 298 296 296 296 295
325 323 321 323 318 315 312 310 308 308 309 309 309 309 309 307 306 305 305 303 303 303 302 299 298 298 294 293 294 294 294 293
324 324 322 324 320 314 313 311 308 308 308 308 309 308 307 307 304 303 303 302 301 300 298 297 297 296 292 291 288 290 292 293
324 323 322 322 318 314 310 309 308 307 306 306 306 302 299 298 299 298 297 298 299 298 298 297 294 295 294 291 286 284 286 289
326 324 318 316 313 310 308 305 304 304 302 299 297 298 298 297 298 297 296 297 295 297 300 297 295 291 292 294 290 288 283 282
324 317 314 312 310 309 307 305 301 298 297 296 295 296 297 298 298 296 297 297 297 297 296 295 294 292 291 289 288 287 285 283
315 312 310 309 308 305 301 299 296 295 294 294 294 295 296 297 297 297 297 297 297 296 295 295 293 292 293 291 288 285 284 283
310 309 308 306 301 299 298 296 295 294 294 293 293 293 294 293 295 295 296 298 297 296 295 294 293 292 291 289 289 288 287 286
307 308 306 303 300 299 297 297 296 295 295 294 294 293 293 293 294 295 296 298 296 296 294 294 294 292 291 289 289 288 288 286

GFSFLT2_sfc_thetae_018.txt.gz
Theta_e
331 331 334 335 334 336 337 336 335 336 336 336 336 336 337 337 338 337 336 335 333 333 332 332 332 332 332 331 324 325 315 318
327 327 329 333 334 335 335 335 334 334 335 335 334 335 336 336 335 335 335 332 331 331 331 331 331 332 331 329 321 320 311 313
326 328 332 332 333 333 334 334 333 333 333 333 330 328 329 330 331 332 332 330 330 329 330 331 326 327 328 323 318 308 310 312
328 328 332 332 332 330 328 329 327 326 326 326 325 325 325 328 330 331 331 330 330 328 329 324 317 311 312 316 307 306 307 312
324 328 331 331 328 326 325 324 324 324 324 325 326 326 325 323 321 321 321 322 316 315 312 311 310 307 308 308 306 305 305 306
324 328 332 329 327 324 322 323 325 326 327 327 325 323 320 318 319 318 314 312 311 310 309 309 307 308 308 307 306 305 304 305
326 329 331 326 325 322 323 326 328 328 328 328 324 320 318 316 312 311 310 310 309 307 306 305 305 306 306 305 304 303 302 302
328 328 323 325 325 325 324 326 327 327 326 324 323 320 315 313 311 309 308 307 307 306 305 305 304 304 305 304 303 301 300 300
321 322 325 323 321 319 321 326 323 320 321 321 321 319 314 312 309 308 308 307 306 306 305 304 304 304 303 303 301 300 299 298
322 328 323 321 318 318 320 318 317 314 313 313 313 312 312 309 308 306 306 307 306 305 304 303 303 302 299 297 298 298 298 297
324 322 319 317 318 319 316 313 311 311 310 310 310 310 311 309 307 305 306 305 305 304 303 302 301 299 299 296 297 295 295 296
324 320 318 319 320 314 311 309 310 309 308 308 308 307 310 307 306 305 304 303 302 301 299 299 299 298 299 296 293 294 293 292
322 318 319 320 316 312 308 307 306 306 306 307 307 307 306 305 303 303 302 301 300 300 298 297 296 295 292 292 292 292 291 291
321 319 320 319 316 312 310 308 305 305 306 306 306 305 304 302 301 298 298 299 298 298 297 295 295 294 291 289 286 289 290 290
322 320 319 321 315 311 307 306 305 304 303 304 299 298 297 298 297 296 295 295 294 294 296 295 293 292 291 290 285 283 284 287
323 322 320 321 315 311 308 306 304 303 301 297 295 297 297 297 297 296 296 296 294 295 297 294 292 290 290 292 289 288 282 280
322 321 318 317 312 313 308 303 302 298 295 294 294 295 296 297 296 296 295 297 296 295 294 293 292 290 289 288 287 285 284 282
321 315 313 313 309 306 306 300 297 294 293 292 293 294 295 295 296 295 295 296 295 294 294 293 292 291 290 289 287 285 283 282
312 311 309 309 306 302 299 296 295 294 293 292 293 293 292 291 293 293 295 296 296 295 294 293 292 290 290 289 288 287 286 285
310 310 306 304 302 300 298 296 295 294 294 293 293 293 293 293 294 295 294 296 296 294 293 292 292 291 290 289 288 287 287 285

GFSFLT2_sfc_thetae_021.txt.gz
Theta_e
327 330 330 332 335 336 336 336 336 337 337 337 337 337 337 337 337 337 336 335 333 332 332 333 334 331 327 327 325 324 314 317
325 326 330 331 332 334 334 333 334 336 336 335 335 335 336 335 335 335 333 332 332 332 332 331 333 329 325 324 324 319 310 313
323 324 325 329 332 333 334 334 334 334 333 333 330 328 328 327 331 331 330 329 330 332 329 326 324 326 324 321 315 309 309 311
322 322 325 330 332 329 327 327 327 326 327 326 325 324 325 327 329 330 330 329 328 326 323 320 314 309 308 311 304 305 306 310
324 326 329 330 327 326 324 323 323 323 324 322 323 324 323 321 319 319 316 318 311 311 310 308 307 307 306 305 304 303 302 305
325 326 328 328 325 323 322 321 322 323 323 325 323 320 317 317 315 312 310 309 308 307 307 306 305 306 305 304 302 301 300 301
323 325 328 327 323 321 320 322 325 325 325 325 322 318 314 311 309 309 308 307 306 305 304 304 304 304 304 303 301 299 299 299
323 324 328 324 322 320 321 325 326 326 324 323 320 316 312 310 308 307 306 306 305 304 303 303 303 303 302 301 300 298 297 296
325 325 324 323 322 321 322 325 324 322 321 321 319 315 312 309 307 306 306 305 304 304 303 303 302 303 299 299 298 296 296 295
322 327 322 321 318 319 321 320 318 317 318 316 314 312 310 307 305 304 305 305 304 303 302 302 301 299 295 296 295 296 294 294
322 322 319 317 318 318 317 317 312 311 310 310 311 310 309 306 305 305 304 303 302 302 301 300 298 297 296 294 293 292 292 294
322 320 317 317 316 312 311 309 308 308 308 307 307 309 308 306 304 303 303 301 300 299 296 296 296 295 296 293 291 291 291 290
320 317 316 318 312 308 307 306 305 305 305 306 306 306 305 303 302 301 300 299 298 298 296 295 294 293 292 291 290 290 289 288
318 318 317 317 313 309 308 306 304 303 304 304 304 304 303 302 298 296 296 295 295 295 295 294 294 292 290 288 286 288 288 288
319 318 319 317 313 308 305 304 304 302 302 301 298 299 297 296 296 295 295 294 293 292 294 294 291 290 290 289 284 283 284 286
322 319 319 317 312 308 307 306 303 302 301 295 294 296 296 296 296 295 295 295 294 295 296 293 291 289 290 291 287 286 282 281
322 319 319 319 313 311 307 305 304 299 295 293 293 295 295 295 296 295 296 297 296 295 293 292 292 290 289 288 286 285 283 281
320 318 318 317 314 312 308 306 301 295 292 292 292 293 293 295 295 295 296 296 297 296 293 292 291 290 289 288 286 284 283 281
319 317 318 317 312 311 308 305 302 297 293 292 292 292 291 292 292 294 298 299 297 296 293 293 291 290 289 288 287 286 285 284
319 312 311 307 309 306 303 301 299 297 295 294 292 292 291 292 294 296 298 298 294 294 294 291 292 290 289 288 288 287 286 285

GFSFLT2_sfc_thetae_027.txt.gz
Theta_e
329 331 330 331 334 336 337 339 339 339 339 339 339 338 338 337 337 336 336 336 337 334 333 334 333 329 327 326 325 324 325 324
324 324 325 328 332 334 336 337 337 338 338 337 335 336 336 336 335 335 335 334 336 333 331 331 328 325 323 321 321 322 321 320
321 323 326 328 332 334 336 337 336 335 335 334 331 331 331 330 331 332 333 331 331 331 327 324 323 322 319 317 318 317 319 319
323 321 320 322 329 329 331 332 331 331 331 331 330 331 330 329 331 332 330 327 325 324 320 318 317 314 313 314 313 315 317 318
319 319 320 319 320 325 328 329 329 329 330 330 331 330 329 328 324 320 320 318 315 316 315 314 314 313 311 311 311 311 311 312
319 320 320 322 323 328 326 326 327 328 328 330 330 327 323 320 318 317 317 316 316 316 315 315 313 312 311 310 310 310 310 312
320 323 323 328 328 327 326 326 326 328 328 331 329 325 321 318 317 316 315 315 315 315 314 313 312 311 309 308 307 307 309 311
322 325 328 331 330 327 325 327 327 328 329 330 327 323 318 316 316 315 315 315 315 314 314 312 310 309 307 306 305 305 307 311
324 326 330 332 329 326 326 326 329 329 329 327 325 320 319 317 315 315 314 315 314 314 313 312 309 307 305 304 304 304 305 307
325 326 328 332 329 326 326 328 331 330 329 326 322 319 318 317 315 315 314 314 314 314 313 310 308 307 305 304 303 303 304 304
325 327 328 330 329 326 328 330 330 329 327 324 320 317 316 317 316 314 315 313 313 312 311 311 307 305 303 302 302 301 301 301
327 327 328 330 327 325 326 326 325 325 325 322 319 317 315 316 314 313 312 311 310 309 308 308 308 306 301 300 300 301 300 301
326 326 328 327 323 322 323 324 322 322 322 321 319 316 314 315 312 311 311 310 309 308 307 305 304 305 302 300 299 299 299 299
327 327 327 326 326 324 324 322 318 319 316 317 317 314 313 312 311 310 309 308 308 307 307 304 303 303 302 301 297 297 298 297
327 327 326 326 325 318 314 315 313 312 312 312 312 312 311 309 309 308 306 305 303 305 306 305 300 300 301 301 296 295 297 298
327 326 325 324 321 319 317 319 315 314 312 311 309 308 306 304 304 305 304 304 304 305 305 304 303 299 300 299 300 299 294 292
327 326 325 324 320 320 319 317 318 313 308 303 303 304 304 303 304 305 304 305 305 304 302 303 303 299 300 299 299 297 297 293
327 325 324 324 320 318 318 315 312 309 306 304 302 302 302 303 303 304 305 305 302 301 302 301 299 301 300 299 297 295 294 293
325 325 323 322 320 318 316 314 311 310 306 302 301 301 301 302 304 304 304 304 304 303 301 301 301 300 300 298 298 297 297 295
324 324 324 322 320 319 315 313 312 312 309 305 301 302 302 302 303 303 303 302 304 303 301 302 302 300 300 299 299 298 297 296

GFSFLT2_sfc_thetae_030.txt.gz
Theta_e
333 330 330 333 336 337 338 339 339 340 340 340 339 338 337 337 337 338 338 336 335 336 335 332 329 327 326 325 325 326 323 323
328 327 327 328 333 336 337 338 338 339 339 337 336 335 336 336 335 336 338 335 333 333 332 329 326 324 323 322 323 325 320 320
323 323 326 328 329 335 337 338 337 336 335 334 330 327 328 330 332 334 335 332 331 328 326 325 324 320 319 320 321 319 319 319
320 322 322 324 328 331 335 335 333 332 331 330 329 332 330 329 332 331 330 328 326 324 322 321 322 319 317 320 317 318 318 318
320 320 320 321 320 326 329 329 330 331 331 329 331 331 331 331 331 328 326 324 319 319 320 320 320 319 318 317 317 316 315 315
319 318 319 318 318 321 324 324 327 328 329 330 331 329 330 329 328 327 324 322 321 320 321 321 319 318 318 317 316 315 313 315
317 318 315 318 320 321 324 326 325 326 328 329 329 328 329 328 326 324 323 323 322 321 320 318 317 317 316 315 313 313 313 313
319 320 321 322 324 327 325 327 327 328 331 333 333 329 329 325 324 323 321 323 322 321 319 318 317 316 314 313 311 311 312 312
320 324 327 325 329 331 325 327 327 329 333 336 334 329 327 326 324 323 322 322 321 320 319 317 316 314 311 311 311 311 310 311
325 327 329 330 332 330 326 327 329 331 334 335 333 329 327 326 324 323 322 321 319 319 318 316 315 314 312 311 312 311 311 310
325 328 329 332 334 330 328 330 332 335 336 334 332 328 326 326 323 322 322 319 319 318 317 317 312 312 311 309 309 308 308 307
328 329 332 334 334 330 327 331 334 336 335 333 330 327 325 325 323 322 320 318 317 317 314 313 313 312 305 306 307 307 307 307
328 328 331 333 331 326 325 328 332 333 334 332 329 327 324 324 322 320 319 317 317 315 312 309 309 311 307 307 306 306 305 305
329 330 331 332 330 327 327 329 331 333 332 331 329 326 324 323 321 319 318 316 315 313 310 308 309 309 307 306 305 305 304 303
328 330 331 332 331 328 330 331 329 328 326 327 327 325 323 321 320 318 317 315 311 311 310 307 306 307 308 304 303 300 303 304
330 330 331 332 333 329 327 326 325 327 326 327 325 323 321 319 318 317 315 311 309 309 308 309 308 305 305 305 306 302 297 296
332 332 331 332 332 330 328 328 329 330 325 324 321 319 317 316 315 313 311 309 309 308 309 308 309 307 305 306 303 302 301 297
332 332 331 331 332 331 330 329 329 325 321 317 315 310 311 311 311 311 310 309 308 309 307 307 308 306 306 303 300 299 299 297
331 331 330 331 331 331 331 330 328 323 319 315 312 311 307 310 310 308 305 306 308 307 305 304 305 306 304 302 303 301 300 298
331 330 330 331 331 330 329 328 326 322 319 315 311 309 306 308 304 306 306 306 306 304 305 304 307 305 304 304 302 301 300 299

GFSFLT2_sfc_thetae_033.txt.gz
Theta_e
335 337 339 338 337 338 338 339 340 340 340 340 339 338 338 338 338 337 338 337 336 335 333 332 328 327 328 326 325 327 322 322
328 330 333 338 337 337 338 338 339 339 338 336 335 336 336 337 337 336 336 336 335 332 331 329 326 325 324 325 323 327 320 321
326 326 328 331 334 337 338 339 337 335 334 332 329 329 329 330 334 335 334 333 332 330 328 326 325 322 321 320 323 319 318 319
324 325 322 321 322 323 325 327 330 330 328 331 328 332 332 328 331 332 330 329 328 327 326 325 324 319 318 321 317 317 316 318
320 319 318 317 318 320 326 328 330 331 333 332 333 332 330 331 328 327 325 324 318 318 319 323 323 320 319 319 317 316 314 317
319 321 320 319 321 323 326 327 329 328 329 331 333 331 333 332 329 327 327 324 324 324 323 323 320 319 318 317 316 314 313 317
316 316 317 319 320 321 323 323 324 325 328 330 329 330 332 329 330 328 326 326 324 324 322 320 319 318 317 315 313 314 313 313
314 314 316 316 318 318 322 326 325 327 329 329 329 329 332 328 328 326 326 326 325 323 321 319 318 317 315 313 312 312 312 313
314 315 316 319 319 319 319 323 326 326 326 335 332 329 332 330 328 326 326 326 325 322 320 319 317 315 312 312 312 311 311 312
315 316 321 321 323 325 326 326 326 325 329 334 334 332 332 330 327 327 326 325 323 320 319 317 315 314 313 312 312 311 311 310
321 325 323 326 329 328 326 328 327 328 334 336 334 332 331 330 328 327 326 324 322 320 318 317 313 312 311 312 312 311 310 308
326 327 327 328 330 330 326 324 327 330 334 333 335 332 330 330 328 326 325 322 320 319 318 314 313 312 308 307 310 310 310 309
325 325 327 329 328 326 323 321 326 331 334 334 334 332 330 329 327 326 324 321 320 319 315 313 310 311 310 311 310 310 309 308
326 326 328 329 327 327 324 324 326 330 336 334 334 332 329 328 327 324 323 320 320 318 314 311 310 311 310 310 307 307 307 307
327 328 329 330 330 328 324 325 328 328 330 331 332 332 329 327 327 325 323 321 318 317 314 311 308 310 311 308 305 303 305 307
329 329 329 330 331 327 324 323 323 327 329 331 330 331 329 327 326 325 322 320 318 315 313 311 310 308 312 309 310 307 300 299
329 329 329 330 331 330 327 326 327 328 329 330 329 330 328 326 325 324 321 318 317 315 312 310 311 308 308 306 308 306 304 299
331 329 328 330 331 331 332 329 328 327 330 327 327 326 323 324 321 320 317 313 312 312 311 309 308 309 307 308 305 302 301 301
330 329 328 330 331 331 332 331 331 330 328 327 323 321 316 314 313 313 310 309 307 307 307 306 306 306 307 306 304 304 304 301
331 330 329 330 332 332 333 330 330 332 330 327 323 316 310 312 310 311 308 305 307 307 306 304 305 307 307 305 305 304 303 301

GFSFLT2_sfc_thetae_036.txt.gz
Theta_e
335 337 339 338 338 338 338 339 340 341 341 340 339 338 338 339 340 339 338 337 335 334 333 331 329 327 326 325 326 328 319 320
332 334 335 336 337 337 338 338 338 337 337 336 336 336 336 336 337 337 337 335 333 332 330 329 326 324 323 321 323 324 316 319
329 331 333 334 333 336 336 338 336 335 334 333 328 328 327 330 333 335 335 332 331 330 329 327 324 322 323 324 322 313 316 319
325 323 322 327 330 331 332 332 329 327 326 327 327 328 328 330 331 332 331 330 329 328 327 325 322 312 313 321 312 313 314 314
318 318 319 318 318 320 322 325 328 328 329 328 329 328 327 328 326 324 323 324 317 319 320 318 318 316 315 313 313 310 312 312
317 317 317 316 316 316 318 323 325 329 328 330 330 328 327 326 324 324 320 319 315 316 319 318 316 315 314 312 310 309 311 312
317 317 318 318 317 318 320 323 324 324 328 330 330 327 328 327 326 324 321 322 322 321 318 316 315 314 312 310 310 308 308 313
315 316 318 319 320 321 322 322 323 325 327 328 329 329 328 327 327 326 324 323 322 320 317 315 314 312 310 308 308 308 307 311
314 315 316 317 318 319 321 321 317 320 325 328 328 326 327 327 324 324 324 323 322 318 315 314 312 310 308 308 308 306 307 307
313 316 315 315 315 315 318 320 323 323 325 329 329 328 329 328 326 324 324 322 320 316 314 312 311 309 307 306 306 306 306 305
314 315 314 317 315 316 319 323 326 326 325 331 331 331 330 328 327 325 324 321 319 317 315 313 309 307 307 306 305 305 305 306
314 315 318 319 318 315 320 321 324 324 325 330 330 330 330 328 328 325 322 320 318 315 313 310 309 308 308 306 306 306 305 304
318 319 320 321 321 320 323 318 321 322 329 331 331 331 329 327 326 323 321 319 317 317 312 308 305 305 304 304 305 306 305 304
322 323 324 323 324 325 325 321 321 323 330 331 330 329 327 327 325 322 321 319 317 315 311 307 307 307 304 304 301 301 303 304
323 325 325 326 326 327 326 323 322 321 328 329 329 330 329 325 325 323 321 320 316 314 311 308 304 305 306 302 299 298 300 302
324 324 324 325 326 323 323 318 316 321 327 329 329 330 328 326 325 324 322 319 316 313 312 308 306 303 307 308 305 304 297 294
325 326 325 327 327 327 324 320 320 322 326 327 327 328 328 326 325 322 320 317 314 313 310 308 307 305 303 302 304 305 301 297
327 326 326 327 327 327 326 322 322 323 324 325 325 325 327 325 322 320 313 311 309 308 309 307 307 306 305 304 304 302 298 296
326 326 325 327 328 328 327 327 325 324 325 326 324 323 320 317 313 311 311 310 309 308 307 306 305 303 304 305 306 303 301 299
325 325 325 326 327 328 329 327 327 327 326 325 324 321 317 313 312 311 310 308 306 306 305 304 304 303 303 303 304 302 301 299

GFSFLT2_sfc_thetae_039.txt.gz
Theta_e
334 339 340 337 335 339 339 340 340 341 340 340 340 340 341 340 340 339 338 336 334 333 331 329 327 326 326 326 326 326 318 319
333 334 335 336 336 337 338 338 338 337 337 336 336 338 339 338 337 337 336 334 333 331 329 327 324 323 322 322 324 324 317 317
331 331 332 331 333 336 337 338 336 335 334 332 327 327 329 331 335 335 334 331 330 330 327 325 323 321 321 323 319 315 317 317
327 328 328 329 331 330 331 330 327 326 325 325 325 326 327 331 332 332 331 330 329 328 326 324 319 309 311 316 309 311 315 316
321 322 322 322 324 327 326 326 325 324 325 326 327 327 326 325 324 324 324 325 320 321 319 313 314 311 309 307 307 309 309 314
316 317 318 319 318 319 322 324 326 326 327 326 324 325 323 322 320 318 315 315 311 312 314 313 311 311 310 307 306 308 309 312
315 315 315 315 317 319 320 322 323 324 326 325 326 325 322 322 321 316 316 316 312 315 313 313 311 310 308 306 306 306 309 311
317 316 316 316 317 318 321 321 321 323 323 324 326 325 324 322 323 319 318 318 318 315 314 312 310 308 305 305 305 304 309 310
316 316 317 316 317 319 321 321 320 318 316 324 325 325 324 325 322 320 320 318 318 316 313 311 308 308 305 305 304 304 304 308
315 317 317 317 317 320 321 317 315 314 314 322 323 322 323 323 321 321 320 319 315 312 310 308 306 304 303 303 304 303 303 304
312 315 316 316 317 319 319 315 313 314 315 321 324 325 324 324 322 322 320 317 315 313 311 309 306 304 303 302 302 302 302 304
313 315 315 314 315 315 316 313 316 318 320 325 326 327 326 324 323 322 318 316 315 312 310 308 305 304 306 303 301 302 302 300
313 312 311 313 310 311 311 311 316 318 320 327 327 326 327 323 321 319 318 316 314 311 310 304 302 302 301 300 300 301 301 300
310 311 311 314 313 312 312 317 315 318 318 325 327 327 326 324 321 317 316 315 314 311 307 303 302 301 299 300 298 299 300 301
310 311 317 315 316 315 318 318 314 315 317 322 326 323 320 324 321 318 316 316 313 310 306 305 301 302 302 301 297 295 296 299
316 317 320 319 319 319 319 319 316 315 316 323 323 324 323 324 322 320 318 316 314 311 310 307 305 301 303 306 303 302 295 293
318 320 321 320 320 321 320 318 317 316 319 323 324 324 325 324 321 319 317 316 314 313 310 307 308 306 304 303 304 304 302 298
319 320 321 321 322 322 321 319 314 313 314 322 323 324 324 323 322 321 318 310 309 309 309 308 307 307 305 304 304 303 301 299
319 319 318 320 321 322 322 320 316 316 317 319 321 320 318 321 318 314 310 310 310 310 307 304 305 304 304 305 306 305 305 301
320 320 320 321 321 322 322 322 320 319 319 319 320 322 322 316 312 311 309 311 308 306 305 304 304 304 303 304 305 305 304 299

GFSFLT2_sfc_thetae_042.txt.gz
Theta_e
332 332 334 337 334 339 339 340 341 342 342 343 343 340 340 339 338 337 335 334 332 330 329 329 329 328 330 327 326 325 316 317
330 333 332 327 329 337 338 338 338 338 339 339 338 338 338 338 336 335 334 332 331 329 328 328 328 327 328 327 326 323 314 316
329 329 330 329 331 337 338 338 336 336 336 336 333 333 332 330 333 333 332 330 329 328 327 325 321 324 326 325 322 316 316 316
327 325 327 328 332 333 332 332 329 327 326 325 326 326 329 329 330 331 329 329 328 327 325 322 317 309 311 317 311 314 316 317
325 324 326 325 327 328 326 325 323 323 323 325 325 327 328 325 325 323 323 325 319 318 313 312 311 309 307 307 309 310 312 315
323 323 323 324 325 326 325 323 324 324 323 324 324 322 320 320 321 319 316 313 312 312 312 312 310 308 307 307 308 308 310 312
318 320 321 321 322 321 323 324 325 325 324 324 322 319 318 317 317 315 312 311 310 313 312 311 309 308 306 306 308 307 309 311
316 317 318 320 320 321 321 321 322 325 324 324 322 320 318 317 317 313 312 313 311 314 311 310 307 305 304 305 305 308 309 310
315 315 318 318 319 320 320 321 321 320 320 322 322 321 320 320 319 316 315 315 315 313 312 310 307 306 304 303 303 307 308 309
316 318 317 317 318 318 319 318 317 316 315 321 322 322 323 321 322 319 318 316 316 313 311 307 306 304 302 302 302 302 305 308
314 316 316 316 317 318 319 316 313 313 313 317 320 321 322 321 319 319 318 315 312 312 308 308 304 302 302 301 301 300 301 307
314 315 315 316 317 317 317 314 311 313 311 314 319 321 322 322 319 320 317 314 311 310 308 307 305 303 305 302 299 300 300 300
312 313 314 314 314 315 313 311 309 311 312 316 321 321 324 321 319 319 316 315 314 311 308 305 302 302 299 298 298 299 299 298
311 312 312 313 314 314 312 312 310 312 314 317 323 324 324 322 320 319 316 314 312 310 307 302 301 300 298 298 296 299 299 299
311 312 311 312 313 311 308 310 312 312 314 316 320 324 324 324 320 318 316 315 313 310 306 304 301 300 301 300 295 295 297 298
311 312 311 312 312 310 309 310 309 313 316 317 319 323 323 322 321 319 316 315 312 311 307 304 304 302 304 306 304 302 296 294
309 311 311 312 313 311 310 309 312 316 312 314 318 320 322 320 320 319 316 315 314 312 306 305 307 306 305 303 304 304 301 299
309 309 310 315 313 314 313 313 315 317 313 314 317 320 321 321 321 320 318 317 315 312 309 306 306 305 305 305 304 303 302 300
311 312 312 316 317 315 315 317 318 317 315 315 316 318 317 319 322 320 318 315 314 312 309 308 305 305 304 305 306 304 303 302
313 314 315 316 317 317 317 318 319 319 318 315 320 321 321 322 322 320 318 312 310 311 308 307 305 305 305 305 305 305 304 302

GFSFLT2_sfc_thetae_048.txt.gz
Theta_e
328 333 336 335 332 332 333 337 339 340 340 340 339 337 337 337 334 334 335 337 336 335 333 332 332 330 329 327 326 324 316 318
329 332 331 329 329 329 330 334 336 339 339 339 337 336 335 332 331 331 332 332 334 334 332 332 331 329 327 327 326 323 316 317
332 331 326 324 324 327 329 329 336 338 338 337 332 328 326 323 328 330 329 328 330 332 332 330 329 328 328 326 321 316 316 317
327 329 327 325 327 323 322 326 332 336 335 331 328 325 322 323 327 327 327 327 328 331 331 329 324 321 322 321 316 316 316 317
323 323 322 323 324 325 325 327 329 331 329 328 324 323 323 320 320 319 318 319 315 318 316 314 313 315 313 314 315 316 316 318
322 320 319 321 323 325 324 325 325 327 326 325 323 322 319 317 315 313 310 309 309 309 308 308 310 312 313 313 313 314 315 318
323 321 320 319 320 322 323 323 324 325 324 324 321 320 318 315 313 311 309 309 310 307 306 306 307 308 311 311 312 312 314 315
322 322 321 321 320 321 321 323 324 324 323 320 321 318 316 314 311 310 308 309 310 308 307 305 305 307 307 308 309 309 310 312
320 320 323 321 321 322 322 323 322 323 321 318 318 318 315 314 311 309 308 309 310 308 306 304 302 305 305 306 306 307 307 309
321 322 321 321 321 320 321 322 322 323 320 319 318 317 316 313 312 310 309 309 311 309 307 303 302 302 302 304 305 306 307 308
318 320 320 319 319 319 318 317 321 319 320 319 318 317 317 315 313 312 311 311 312 310 307 306 303 301 301 301 302 304 304 308
318 319 319 318 319 318 316 315 312 317 318 320 320 319 319 317 316 314 314 312 312 311 307 306 305 302 302 300 298 299 301 304
316 316 318 318 317 315 315 315 312 311 313 317 320 320 320 319 318 317 316 313 312 310 306 305 302 301 299 299 299 299 299 299
314 315 316 317 318 318 315 316 312 311 312 315 318 319 320 320 316 316 314 312 310 308 307 303 303 301 299 297 296 297 299 299
313 315 315 317 318 316 311 312 311 310 310 312 314 317 318 318 317 316 315 313 310 308 306 304 301 300 300 300 296 296 299 300
313 314 315 315 316 314 313 313 313 313 310 310 312 315 315 317 318 316 315 313 311 310 308 304 302 300 300 302 303 303 297 297
309 312 314 315 313 313 311 310 312 310 307 308 309 311 314 316 317 316 314 314 313 311 308 305 304 303 304 304 304 303 302 300
308 309 310 312 311 310 310 310 309 308 307 308 309 310 311 314 316 316 315 314 313 312 310 308 309 308 307 307 305 303 301 299
307 309 309 311 310 310 309 310 309 309 309 309 309 309 310 311 313 313 313 314 314 312 311 311 310 309 308 307 308 307 306 304
307 308 309 310 310 310 310 309 309 309 308 309 309 310 310 311 313 314 314 314 313 312 311 313 311 310 309 308 308 308 306 305

GFSFLT2_sfc_thetae_051.txt.gz
Theta_e
336 338 336 335 336 337 338 339 340 340 339 339 339 339 339 337 337 339 339 339 337 336 334 333 332 330 329 328 326 327 324 324
332 333 336 332 333 332 335 337 336 336 338 337 336 337 336 335 336 339 339 337 336 334 333 332 331 329 328 327 326 326 325 324
335 335 334 331 329 330 333 336 335 334 337 335 333 334 331 330 332 336 336 333 333 332 332 331 329 328 328 327 326 324 324 324
331 331 330 329 327 327 331 333 332 332 337 336 333 332 329 327 330 331 332 332 332 332 330 329 326 325 325 324 324 325 324 324
326 326 326 325 325 325 324 328 329 330 335 333 330 328 329 327 327 327 330 331 330 328 327 325 325 324 323 323 324 325 324 324
324 326 325 324 324 322 324 327 328 327 334 329 326 326 325 324 323 322 322 326 329 326 323 325 324 323 323 323 324 323 324 325
320 321 322 323 321 323 324 325 326 328 330 327 325 324 324 321 321 319 319 321 322 322 322 321 321 322 322 322 323 324 325 325
321 321 321 322 322 321 323 323 324 326 328 326 325 324 322 319 318 318 318 318 319 320 320 320 320 320 320 322 322 323 324 325
321 322 321 321 321 321 323 323 325 326 325 325 325 324 322 321 318 317 319 318 317 316 316 318 318 318 318 319 319 320 320 321
321 322 320 321 321 322 323 323 323 324 324 326 324 322 322 320 317 318 319 319 317 315 313 314 315 315 314 314 314 314 315 317
320 321 320 321 321 322 323 322 321 322 323 324 324 322 321 320 318 318 319 319 317 315 313 313 311 312 312 313 313 313 314 313
321 320 321 321 321 321 321 321 319 321 323 323 322 322 322 321 319 319 318 319 318 317 315 314 312 311 307 308 311 313 313 314
319 319 319 319 318 318 317 316 318 320 324 325 324 323 323 323 321 320 319 317 320 319 317 315 312 311 308 308 308 309 310 311
317 318 318 319 318 319 319 318 316 319 320 323 325 324 323 324 324 322 321 319 320 320 317 315 314 312 310 310 306 307 307 309
317 317 318 319 320 317 315 314 314 314 316 318 321 324 323 324 326 325 323 324 320 321 319 317 314 312 312 312 306 307 309 310
318 319 318 318 319 316 314 315 314 314 315 315 315 320 323 325 326 325 324 324 323 323 320 320 319 314 311 310 313 313 308 305
317 319 319 319 318 318 315 317 317 317 315 313 314 318 320 322 323 325 325 325 325 324 321 319 318 319 314 313 310 308 307 304
315 317 318 319 319 318 317 317 317 316 314 313 315 316 318 320 320 323 325 325 325 324 323 321 319 317 316 316 312 307 303 302
312 314 315 318 318 317 318 318 317 317 317 316 316 316 316 318 320 321 322 324 325 325 323 322 321 319 318 316 315 313 310 307
311 313 315 316 317 316 317 318 317 317 318 317 318 317 318 319 320 321 322 322 323 324 323 323 322 321 319 317 312 311 311 311

GFSFLT2_sfc_thetae_054.txt.gz
Theta_e
343 343 341 339 338 339 340 340 340 340 341 342 341 340 340 340 339 339 340 339 337 336 334 333 332 331 330 329 328 331 327 327
336 337 340 341 340 335 338 338 338 339 340 338 338 338 337 338 338 340 340 337 336 335 333 332 330 330 329 328 327 328 327 326
334 330 331 336 335 335 337 337 337 337 337 336 334 336 335 334 334 337 337 334 333 333 332 331 330 329 328 327 327 326 326 326
334 328 333 334 333 330 332 334 338 335 332 333 336 336 333 331 336 336 334 333 332 332 331 329 326 325 326 326 326 327 327 326
334 331 332 330 327 327 329 331 330 329 329 329 334 333 330 335 337 335 335 331 329 329 327 326 325 324 324 325 327 327 327 325
329 332 331 330 328 328 328 330 329 328 328 329 334 330 331 331 331 332 332 330 329 328 326 327 326 325 325 326 327 326 327 326
329 328 327 326 324 325 327 328 327 328 328 330 329 328 329 328 329 331 330 331 330 327 327 326 325 324 324 325 325 326 327 326
323 326 326 326 322 324 326 326 326 327 327 328 327 327 327 323 324 324 326 329 329 326 325 324 322 323 323 324 324 325 326 327
323 322 323 322 323 323 324 325 325 326 326 329 327 325 325 325 321 322 323 325 325 324 324 323 321 321 322 323 323 324 324 325
323 324 323 323 322 323 322 324 324 325 327 326 324 322 324 324 321 321 322 323 322 322 322 321 320 320 320 321 321 321 322 323
321 322 322 322 323 323 322 323 323 324 327 324 324 322 322 322 320 322 324 322 322 320 319 320 318 318 318 318 318 318 318 318
322 322 322 323 322 323 322 321 321 323 323 325 325 323 323 323 321 323 325 323 322 321 319 319 318 317 313 314 317 317 318 317
320 319 320 321 319 320 320 318 318 320 321 325 327 323 324 324 322 323 324 324 324 324 321 318 316 318 313 313 314 317 317 317
321 320 321 320 320 320 320 319 318 319 320 323 326 327 324 324 324 323 323 324 325 325 323 319 319 318 314 316 312 314 315 316
320 320 320 320 320 321 320 319 318 317 318 322 325 328 325 325 325 325 324 324 323 325 325 323 320 320 321 318 314 311 316 318
322 321 320 320 320 319 317 314 314 317 318 322 324 327 326 325 325 326 327 325 324 325 325 325 324 320 320 319 322 321 315 313
322 321 321 320 320 319 317 316 316 317 317 319 323 326 326 325 326 328 328 329 328 328 327 327 326 326 322 321 320 320 320 316
321 320 320 320 319 319 317 317 317 318 316 315 316 319 324 327 326 329 330 329 329 330 330 329 327 326 327 324 322 319 317 316
322 320 318 321 320 320 321 320 321 321 318 317 317 316 317 319 324 325 325 326 328 329 329 329 328 326 326 325 324 323 322 320
320 321 321 321 321 321 324 323 324 322 322 321 320 320 321 321 323 324 324 324 325 326 325 326 327 327 327 326 325 325 323 318

GFSFLT2_sfc_thetae_057.txt.gz
Theta_e
347 346 343 339 338 338 338 341 342 342 342 342 341 340 339 340 341 340 338 337 337 335 335 334 332 331 330 328 327 330 326 326
343 343 343 341 342 336 336 337 338 340 340 340 339 339 339 339 338 339 338 337 336 335 334 333 331 330 329 327 326 327 326 325
334 339 340 340 341 337 336 336 337 338 340 337 335 338 339 337 336 337 336 334 334 334 333 331 329 329 327 327 328 326 326 325
335 333 337 337 337 333 335 334 335 336 339 339 334 335 336 334 336 335 334 333 332 332 331 329 326 323 324 325 326 327 326 325
331 331 331 335 331 334 331 339 337 334 331 329 329 334 334 336 336 336 333 330 328 327 326 323 323 322 325 328 327 328 326 325
332 329 331 332 332 332 331 329 329 328 328 328 329 330 332 335 332 333 330 327 327 324 323 327 325 324 326 327 328 327 325 325
329 330 332 331 329 330 329 329 328 327 326 327 328 330 330 333 332 331 329 330 327 325 326 325 324 325 326 327 326 327 326 325
326 327 328 328 327 327 327 328 327 326 324 325 327 330 329 331 331 331 330 330 328 326 326 324 323 324 325 326 326 326 327 327
324 325 327 324 324 325 327 327 327 324 324 326 329 329 330 333 331 330 330 331 329 327 326 324 321 323 323 324 325 326 326 327
325 324 324 323 324 325 325 325 325 324 325 327 328 327 329 330 326 326 326 328 326 324 322 321 321 321 322 322 323 324 325 326
324 325 324 323 324 323 324 324 324 324 325 326 327 326 325 326 322 325 326 325 324 322 322 322 319 319 320 321 322 321 322 322
325 324 322 323 322 322 322 322 323 324 324 325 324 322 323 325 324 328 324 322 321 321 323 322 321 319 317 317 319 319 319 319
323 322 322 322 320 319 319 318 320 321 323 323 324 323 323 324 322 326 325 323 323 325 321 320 318 320 315 315 316 318 319 318
322 321 321 322 322 322 321 319 319 320 321 325 326 327 323 323 324 322 324 324 327 326 325 319 317 318 313 313 310 313 316 318
321 320 321 322 322 324 322 322 319 317 317 319 323 327 323 323 325 325 325 327 327 328 326 324 318 320 321 317 312 310 315 319
323 321 321 323 322 320 319 317 315 316 316 317 321 326 325 322 325 328 329 326 328 329 327 327 326 320 321 320 325 322 315 310
325 321 321 321 322 320 319 319 319 317 316 316 322 325 323 324 327 329 329 328 329 329 329 329 327 325 323 322 322 322 323 317
324 323 320 320 322 321 320 318 317 316 315 315 321 323 326 325 326 328 329 330 330 329 330 330 329 328 327 325 322 319 318 318
324 321 321 320 320 319 321 322 318 319 319 317 315 319 321 325 327 326 328 329 330 326 328 330 330 328 328 327 326 323 323 322
324 322 321 321 320 320 322 323 321 322 321 321 321 318 321 324 328 329 329 330 330 329 329 328 326 327 329 327 327 324 325 324

GFSFLT2_sfc_thetae_060.txt.gz
Theta_e
347 345 343 338 338 337 335 333 329 341 343 342 342 340 340 340 341 340 340 338 337 336 335 334 333 331 329 327 328 331 322 322
342 343 342 338 338 335 332 332 325 325 341 340 338 338 339 339 338 339 338 337 336 335 334 333 331 329 327 328 327 330 321 321
339 340 341 339 334 335 332 333 324 334 339 338 334 336 336 337 336 336 336 334 334 334 333 331 329 327 327 327 328 321 322 321
335 337 337 334 333 333 330 329 329 335 336 335 335 335 334 335 334 334 334 333 333 332 330 328 325 319 320 324 320 323 321 321
335 334 335 333 331 332 330 331 331 333 333 333 332 332 333 332 332 331 330 331 327 327 324 320 317 318 320 321 323 323 321 320
333 334 332 332 333 331 329 328 331 328 327 328 330 329 329 331 330 328 325 324 322 321 319 319 318 319 323 323 322 322 321 321
330 330 330 331 331 332 330 330 328 327 325 326 328 327 327 329 329 326 323 323 321 318 319 320 320 319 323 322 323 322 321 321
328 329 331 330 330 330 330 329 327 325 324 325 327 327 326 328 328 325 323 323 322 320 322 320 319 320 321 322 323 323 321 321
326 325 327 328 328 328 328 329 326 324 323 325 326 325 326 328 327 326 324 324 323 321 322 320 319 320 320 321 322 322 322 320
324 326 325 326 326 326 327 328 326 323 323 323 324 325 327 327 327 326 325 325 324 323 319 317 317 317 317 318 319 320 321 321
324 324 324 323 324 325 325 326 324 322 322 321 323 323 326 325 324 324 325 324 322 321 319 317 315 316 317 317 317 317 319 320
324 324 324 323 323 323 323 323 322 321 321 322 325 324 323 323 322 323 322 321 320 319 318 319 316 315 317 316 315 316 316 316
322 322 322 321 320 319 319 318 320 320 322 323 323 321 321 321 320 321 321 318 317 319 319 317 316 316 313 312 312 313 314 313
323 322 322 321 320 320 320 319 320 320 321 321 320 320 320 321 320 320 320 320 320 319 317 315 316 316 310 308 304 307 311 314
321 321 321 321 321 321 320 319 319 317 317 319 320 320 320 320 321 320 320 321 320 319 319 317 312 313 313 309 304 302 307 310
321 321 321 321 322 320 317 316 314 315 317 319 320 323 320 320 321 321 320 320 322 322 323 320 319 312 312 315 314 315 311 307
321 320 320 321 322 321 319 317 316 315 316 316 318 322 324 321 321 322 320 320 320 323 322 321 320 318 315 314 313 314 315 311
321 320 320 321 321 321 320 317 316 314 315 313 315 317 323 323 321 321 323 323 321 322 323 322 321 320 319 318 316 313 312 311
322 319 319 321 320 320 320 320 318 316 315 314 313 314 318 320 321 321 323 323 324 324 322 322 323 321 320 319 319 317 317 316
322 320 318 319 320 320 320 320 319 318 316 316 315 315 318 321 321 321 322 323 324 324 323 323 322 321 321 320 320 319 319 318

GFSFLT2_sfc_thetae_063.txt.gz
Theta_e
341 338 340 340 337 336 335 337 333 335 338 343 343 341 341 341 342 341 340 338 337 337 336 335 334 332 329 329 328 328 321 321
335 335 335 334 333 333 331 330 329 329 329 334 339 338 339 340 339 339 338 337 336 335 334 333 332 329 328 328 327 327 320 319
332 333 334 332 333 332 330 329 329 330 330 327 334 336 336 336 336 337 336 334 334 334 333 330 328 328 327 327 326 320 320 320
329 330 333 332 333 330 329 327 326 328 329 327 334 335 333 335 335 334 334 333 333 332 330 328 324 318 319 323 320 320 320 320
328 330 331 331 330 328 328 326 327 325 331 333 333 333 333 332 332 330 330 330 327 326 324 318 315 316 317 317 319 319 319 320
328 330 330 330 331 329 326 327 329 327 331 332 330 330 330 329 328 328 327 325 321 320 317 315 314 317 318 319 319 319 319 319
327 330 329 329 328 327 327 329 329 329 329 330 330 329 329 327 326 324 322 320 318 316 315 316 314 316 318 320 319 318 318 320
328 328 328 328 327 327 326 328 327 327 328 328 328 328 328 326 323 321 320 318 315 316 316 315 315 315 318 321 319 319 318 319
325 327 328 327 325 327 328 326 324 322 324 326 327 327 326 327 322 320 321 319 315 315 317 318 315 318 317 319 320 319 318 319
325 327 326 326 323 325 327 325 322 321 322 324 326 326 326 327 324 320 322 320 319 317 318 316 315 316 315 316 318 318 318 318
323 324 324 324 324 324 326 326 324 322 322 323 325 325 325 327 325 323 323 321 321 320 317 316 314 314 314 314 315 317 317 318
322 323 323 323 324 324 325 325 324 323 322 322 324 324 323 325 325 324 324 322 319 317 317 314 314 315 317 315 313 314 316 316
321 321 322 321 320 320 320 319 320 320 321 321 323 322 322 319 322 321 320 320 319 317 316 314 312 313 310 309 309 311 312 312
321 320 320 320 320 320 320 320 320 320 320 321 322 320 320 318 319 319 318 319 318 316 314 313 313 313 309 307 302 305 307 310
320 320 320 320 320 320 320 320 319 318 319 319 320 319 319 319 319 318 317 318 317 314 313 313 311 312 310 306 301 300 302 305
321 320 319 320 320 318 317 316 314 316 317 318 317 318 318 318 319 318 317 318 317 315 316 316 312 310 308 312 309 310 305 303
318 319 320 319 319 319 317 315 316 317 317 316 317 317 317 317 318 318 316 316 317 317 317 317 317 313 309 307 307 310 311 308
317 318 319 320 319 318 316 316 313 313 312 314 315 318 318 317 318 319 317 316 316 320 319 318 317 317 315 313 312 309 309 308
316 317 318 319 319 318 316 316 315 312 313 315 315 314 318 319 318 316 317 318 317 318 320 320 318 318 317 317 317 316 315 313
316 316 318 319 319 318 318 317 316 314 314 315 315 315 316 320 320 318 318 319 320 320 320 320 320 320 318 317 318 318 317 315

GFSFLT2_sfc_thetae_066.txt.gz
Theta_e
337 341 341 339 339 339 338 341 341 341 334 341 343 342 341 342 342 342 341 339 339 338 337 334 333 332 331 329 328 327 320 321
335 337 337 334 333 335 334 336 335 333 333 330 332 339 340 340 339 340 339 338 337 337 335 333 332 331 330 328 327 326 318 318
330 331 332 333 331 333 333 334 335 333 331 329 326 333 336 337 336 337 337 335 335 335 333 331 330 330 329 328 325 320 320 319
328 329 329 332 331 328 327 329 329 328 328 328 326 331 334 335 335 335 334 334 334 332 330 329 323 321 324 325 319 319 319 319
326 328 331 332 330 328 326 323 324 326 326 325 326 333 333 333 332 331 330 331 327 326 324 317 316 317 318 318 318 319 319 320
325 328 331 330 329 327 325 323 322 323 326 324 328 331 331 330 328 328 326 324 321 319 316 315 315 317 318 317 318 318 318 319
325 329 329 330 328 327 324 324 327 324 330 326 330 330 329 328 327 326 324 322 319 315 313 313 314 316 319 317 317 317 317 319
324 327 329 329 328 326 324 328 328 328 330 330 331 330 328 326 325 323 322 320 318 313 313 311 312 315 318 317 317 317 317 318
323 324 328 328 326 326 327 327 327 328 328 329 329 329 326 324 321 320 320 319 313 312 313 313 313 316 318 317 317 317 317 317
325 327 327 326 326 326 326 325 323 324 326 326 328 328 327 322 320 319 317 316 313 313 313 313 312 314 315 317 316 316 317 317
324 326 325 325 325 326 325 322 321 323 324 325 326 327 327 322 319 320 317 316 312 315 314 314 313 313 315 315 316 315 315 317
322 324 324 325 325 326 325 324 322 321 322 324 325 325 326 325 321 321 318 316 314 315 314 314 315 315 316 315 314 315 315 315
320 322 322 323 322 322 322 321 322 321 322 323 324 323 324 325 322 322 321 318 318 316 314 314 313 314 311 309 309 312 314 314
318 321 322 322 322 322 321 322 321 322 321 322 323 322 322 323 324 321 322 320 316 315 314 311 313 314 310 308 304 306 308 311
317 319 320 320 320 320 318 320 319 318 319 319 322 321 320 320 322 319 320 319 317 314 314 313 311 311 312 309 302 302 303 305
317 318 319 319 320 319 318 316 315 317 318 320 321 320 319 319 320 318 318 319 318 316 314 312 312 312 309 311 309 307 302 300
317 318 319 319 319 319 318 316 317 318 318 318 319 319 318 317 318 318 317 318 318 317 315 312 312 312 309 308 307 308 308 305
316 316 317 318 319 319 317 316 316 315 316 315 316 316 316 317 317 317 317 317 318 317 316 313 313 313 313 310 308 306 307 307
316 315 316 318 318 318 317 315 314 314 314 315 315 315 315 315 317 317 317 317 317 318 316 314 313 315 314 312 313 311 312 310
315 315 316 317 318 317 317 316 314 313 314 315 314 316 316 317 317 317 318 317 316 317 318 318 316 316 315 316 316 316 315 314

GFSFLT2_sfc_thetae_069.txt.gz
Theta_e
337 343 346 342 339 341 338 340 342 342 342 341 342 342 343 343 343 343 342 340 340 339 338 335 336 335 332 330 328 327 320 321
333 335 334 331 332 337 336 335 334 334 336 337 337 336 339 340 340 341 340 339 338 337 334 334 335 332 330 328 327 326 318 320
329 330 332 332 333 337 337 335 332 333 334 333 329 331 335 336 336 337 338 336 335 334 332 333 332 330 329 328 325 319 318 317
327 327 328 328 333 332 333 330 333 330 330 330 327 330 333 333 334 335 335 334 334 332 331 331 329 324 325 324 319 318 318 318
325 327 330 328 328 327 329 330 330 329 328 327 328 329 332 331 331 331 330 332 328 326 323 322 322 321 318 318 318 318 318 319
325 329 329 330 328 326 325 325 327 325 325 324 327 327 329 331 330 328 326 325 323 320 315 316 318 318 317 317 317 317 317 317
326 327 328 328 327 326 324 323 324 324 324 324 327 328 329 330 328 326 322 321 320 316 313 315 317 317 317 317 316 316 316 318
326 325 329 329 327 325 324 322 324 322 325 324 329 329 330 328 326 325 322 320 317 316 313 313 316 317 316 316 316 316 316 316
324 325 328 328 327 325 325 326 326 325 326 324 327 330 329 327 325 322 321 318 314 312 311 310 313 317 316 316 316 315 316 316
322 326 325 327 326 326 326 326 325 327 328 328 327 329 328 325 323 321 321 317 315 313 311 310 312 316 315 315 315 315 315 315
321 325 324 325 325 326 325 323 322 323 326 326 328 327 325 323 320 319 318 317 315 313 312 312 312 314 315 315 313 314 314 317
322 323 325 325 325 325 323 322 322 322 322 324 326 327 324 320 318 318 317 313 313 313 314 312 312 314 316 314 314 313 314 313
321 321 324 324 323 322 322 320 320 321 320 323 324 326 324 320 319 317 316 310 312 314 311 311 310 313 311 309 310 313 312 313
319 319 322 324 324 323 323 323 322 322 321 321 324 324 326 322 319 318 316 314 314 315 312 310 310 312 310 309 305 308 311 311
318 319 320 322 323 320 320 320 320 320 320 320 323 322 323 325 321 320 319 317 316 315 312 312 310 310 312 309 303 304 305 307
316 320 319 320 321 320 319 318 316 319 320 320 322 321 322 321 323 320 320 320 317 315 314 314 313 311 308 310 310 308 304 302
318 318 317 319 319 319 318 316 317 318 318 318 320 320 319 318 321 319 319 320 319 317 313 311 314 313 309 307 308 309 308 305
316 316 315 317 318 317 315 316 316 316 317 317 318 319 318 317 319 318 319 318 318 317 315 313 313 315 312 310 309 308 308 307
316 316 315 315 318 316 315 313 315 316 316 317 316 317 316 315 317 318 317 317 318 318 316 316 313 312 313 311 312 311 312 312
315 314 315 315 317 318 318 315 316 315 316 317 317 317 317 316 317 318 318 317 317 318 317 316 315 313 313 313 312 311 311 311

GFSFLT2_sfc_thetae_072.txt.gz
Theta_e
337 341 344 343 341 339 337 339 342 343 341 341 342 342 342 342 342 342 342 341 341 340 339 338 337 335 333 332 329 328 322 323
332 340 342 336 333 334 337 336 337 339 337 334 335 337 339 339 339 340 341 340 339 339 337 336 335 333 331 329 328 326 321 322
329 334 332 330 331 334 336 337 338 337 337 335 332 334 335 335 335 338 339 337 337 335 335 335 333 331 329 328 324 318 319 319
326 327 328 328 333 336 333 332 332 333 333 332 331 330 332 332 333 335 335 335 334 332 334 332 329 324 325 324 319 319 318 318
324 327 330 330 329 331 330 330 329 330 331 330 329 329 332 331 330 331 331 332 327 328 329 325 322 321 317 317 318 318 319 319
324 329 329 328 328 328 329 330 329 329 329 328 329 329 330 326 328 328 329 326 321 324 322 321 321 318 318 317 318 318 318 319
326 329 329 328 327 326 326 327 328 328 327 326 328 328 328 326 328 327 327 322 319 316 316 318 316 316 317 317 317 317 317 318
325 327 328 327 326 326 324 324 324 326 325 325 328 327 329 328 328 326 322 323 318 314 316 316 315 316 316 317 317 317 318 318
324 325 326 325 325 325 324 324 324 325 325 325 328 328 328 329 327 324 321 319 314 311 311 314 315 315 315 316 317 317 317 317
323 325 325 325 325 325 325 326 326 324 326 325 327 328 330 328 326 322 319 317 315 312 312 313 314 313 313 314 316 316 316 316
322 324 324 324 325 325 326 325 325 326 326 326 325 329 329 327 324 321 319 317 315 312 310 313 314 312 313 314 315 314 315 317
323 324 323 324 325 324 324 322 323 323 326 326 325 328 326 324 321 319 319 317 315 313 311 311 315 314 315 312 313 314 314 314
321 323 324 325 323 321 320 320 320 321 323 326 326 325 322 320 318 317 316 315 314 313 312 312 311 314 310 309 309 313 313 313
319 321 324 324 324 322 323 321 321 321 322 324 326 324 321 319 318 316 315 312 313 313 313 310 311 314 310 308 304 308 312 313
318 320 323 324 324 322 321 320 321 319 319 321 323 325 322 320 320 316 315 312 312 313 311 311 309 310 314 309 303 304 308 310
318 319 320 322 322 321 319 318 316 319 319 321 322 324 324 321 319 318 315 314 314 314 313 312 312 310 308 310 310 308 306 303
316 318 319 320 321 321 320 319 318 319 319 319 321 321 323 323 320 320 318 317 316 315 314 312 312 312 310 308 308 308 308 307
317 317 316 318 319 320 319 316 316 316 317 317 319 319 320 321 322 319 319 319 317 317 315 313 313 313 312 310 309 308 307 307
316 315 314 315 316 317 317 316 316 316 316 317 317 318 317 317 320 319 320 319 319 317 315 313 312 312 313 312 312 312 312 311
316 315 314 313 312 314 315 312 314 317 317 318 318 318 318 318 318 318 318 319 319 318 317 316 315 313 312 313 312 313 312 311

GFSFLT2_sfc_thetae_075.txt.gz
Theta_e
343 344 346 343 341 342 339 340 341 343 342 342 341 340 341 341 342 343 343 343 342 341 340 339 339 336 334 332 330 331 332 332
344 342 344 346 348 337 338 339 339 340 339 338 336 336 336 338 339 341 341 341 340 340 339 338 337 334 332 330 329 330 331 331
340 340 343 343 347 340 339 339 339 338 338 336 334 337 335 335 336 337 339 337 337 338 337 335 333 332 331 329 329 330 330 329
339 339 338 339 341 340 343 342 343 341 337 334 337 336 334 332 333 335 336 336 335 336 335 332 332 332 330 327 329 329 328 329
337 335 336 336 335 337 338 340 341 338 335 334 336 336 334 333 332 333 332 334 335 335 334 333 333 331 329 328 327 327 327 327
335 334 334 333 334 332 335 335 335 334 335 334 333 335 331 330 329 332 331 331 334 335 333 332 331 329 328 327 327 326 325 325
332 332 332 332 331 331 332 333 334 331 332 331 330 333 332 330 329 332 329 327 332 331 330 329 328 327 326 325 325 325 325 325
330 330 332 332 330 329 329 331 331 330 329 330 331 333 332 328 329 330 326 325 328 328 328 327 327 326 325 325 325 325 325 326
328 329 331 329 329 328 328 327 328 328 328 329 330 332 330 329 330 328 325 324 325 326 326 326 325 325 324 324 324 324 323 325
328 327 328 328 328 327 328 326 326 327 326 328 329 330 331 329 328 326 325 321 322 323 324 323 323 323 322 322 323 324 323 325
325 327 327 327 327 327 327 327 326 326 326 326 327 328 330 329 327 325 323 323 321 322 323 323 322 322 321 322 322 322 323 322
326 327 326 327 327 326 327 327 327 328 327 326 327 328 329 328 326 323 323 322 320 320 321 323 322 321 319 319 321 322 322 322
325 325 325 325 324 324 323 322 324 324 327 328 327 326 328 325 323 321 322 322 322 321 320 321 320 322 318 318 319 321 321 321
325 325 325 326 326 324 324 323 324 324 327 327 329 326 325 323 321 321 321 323 322 321 320 319 320 321 318 317 312 315 318 319
323 324 325 327 327 326 323 323 323 321 321 323 324 323 322 321 321 320 320 321 319 319 320 319 316 319 321 318 312 312 314 317
324 323 324 326 326 323 321 320 319 321 321 322 324 324 322 321 318 318 319 320 320 319 319 318 317 315 318 318 321 318 313 310
322 322 323 324 325 323 321 321 323 322 322 321 322 324 322 322 319 317 316 318 320 319 319 319 321 320 318 317 317 317 319 316
319 320 320 323 324 324 322 321 320 320 320 321 322 322 322 321 320 318 317 316 316 316 317 320 320 321 320 320 317 315 313 313
318 319 318 320 322 322 322 320 320 320 320 320 320 319 319 321 321 320 319 318 317 317 316 316 318 318 321 318 319 319 318 315
318 317 316 317 319 320 321 320 319 319 320 320 320 320 320 320 321 320 320 320 319 318 317 315 316 318 319 320 319 318 319 318

GFSFLT2_sfc_thetae_078.txt.gz
Theta_e
352 348 348 343 341 343 343 343 343 342 344 343 343 341 342 342 343 342 343 343 343 343 342 340 339 337 335 333 333 335 337 336
346 347 348 350 350 340 341 341 341 341 341 339 338 339 339 339 338 340 340 342 342 342 340 339 337 335 333 331 331 333 337 335
348 345 346 348 350 348 341 341 341 339 339 338 336 341 338 338 337 338 339 338 338 339 338 336 334 333 332 330 331 335 334 333
347 343 344 346 345 349 349 347 345 344 344 343 344 340 339 339 337 337 337 336 336 336 335 333 333 335 334 330 334 334 333 331
344 346 348 347 343 344 346 345 344 345 344 342 341 339 338 334 335 338 337 335 336 336 336 337 337 334 334 334 333 333 332 331
342 342 342 342 342 340 342 343 343 343 343 342 337 336 334 334 333 336 334 336 333 337 340 338 335 333 334 333 332 330 329 329
341 340 337 338 337 338 338 341 338 339 341 342 338 335 336 335 335 334 332 333 332 338 337 334 334 333 333 332 330 330 328 327
341 339 339 340 338 336 336 338 338 336 338 339 341 336 334 332 331 333 331 330 332 336 334 333 332 332 332 331 330 327 327 327
339 337 336 338 338 335 333 334 336 335 335 337 335 334 334 331 330 331 330 330 330 334 333 332 330 330 330 329 328 326 326 326
337 335 337 338 335 333 331 332 334 335 334 335 333 333 334 333 329 329 327 326 328 331 330 329 329 328 327 327 327 326 325 326
336 335 334 335 333 332 330 330 332 330 331 330 332 333 333 332 330 330 326 323 325 329 329 329 327 326 326 326 326 326 325 324
336 332 333 333 333 330 329 331 330 329 328 329 329 329 330 330 331 327 327 322 322 327 328 329 327 326 323 324 326 326 326 325
334 330 331 330 329 326 326 327 328 327 329 329 329 328 329 329 327 325 326 321 321 323 328 327 325 327 321 321 323 324 324 324
333 331 330 330 329 326 326 326 327 329 329 329 330 332 329 327 325 324 322 321 321 326 327 325 324 325 321 320 313 317 321 324
332 332 332 331 331 329 331 327 327 326 326 327 328 332 327 326 325 323 323 322 321 324 327 326 321 324 325 320 314 312 317 322
333 332 330 331 332 329 328 324 320 325 326 324 328 327 324 324 324 323 323 324 323 325 326 327 325 321 324 323 324 320 315 314
333 332 329 331 330 329 327 324 323 326 325 323 325 324 322 321 322 321 322 323 326 327 326 325 325 323 322 323 323 323 322 317
330 329 327 329 329 329 326 323 323 325 323 323 322 322 322 322 320 320 320 321 325 326 325 325 325 324 323 321 321 319 318 317
325 328 324 326 328 327 327 327 325 323 324 322 322 321 321 320 320 320 317 319 322 324 324 323 323 323 324 323 323 322 321 319
322 325 322 324 326 326 326 326 323 323 324 326 326 323 324 325 321 319 319 317 318 318 319 319 321 322 323 324 323 323 323 321

GFSFLT2_sfc_thetae_081.txt.gz
Theta_e
354 350 347 343 342 344 345 346 345 344 345 343 345 342 342 343 343 343 343 342 343 343 342 341 341 339 338 335 334 337 338 336
352 352 352 351 350 342 343 344 342 343 345 342 340 341 339 340 339 339 339 341 341 342 339 339 338 336 335 333 333 333 336 334
349 349 350 351 349 347 343 343 342 341 341 339 337 344 341 340 334 334 337 337 338 339 338 336 334 334 333 332 332 334 333 334
350 346 350 350 345 349 348 347 346 345 343 345 345 345 341 337 332 332 337 336 337 337 335 333 333 336 334 332 335 335 332 331
346 347 349 349 346 348 348 345 344 346 345 345 345 345 339 340 335 337 338 338 339 335 334 339 339 337 335 334 333 332 330 332
344 347 346 347 344 347 346 343 344 344 344 343 343 342 338 336 337 338 337 339 335 334 336 340 337 336 335 333 332 329 329 331
343 345 344 343 343 342 344 344 343 345 343 343 342 339 337 334 334 335 335 337 334 333 334 338 336 334 332 330 330 329 329 330
343 344 343 342 340 339 340 343 342 343 342 342 341 340 338 335 332 334 336 336 332 331 332 335 335 331 330 329 329 328 328 327
341 344 343 342 341 338 339 339 340 338 339 342 340 340 339 337 336 334 334 332 330 330 330 335 332 329 329 329 328 326 325 326
341 341 341 341 340 338 335 338 339 337 338 339 339 338 338 333 331 331 332 330 329 329 328 332 329 328 325 327 326 325 325 326
340 340 339 340 340 334 333 335 334 335 336 336 337 335 335 333 332 329 330 329 328 328 327 332 327 325 324 326 326 324 324 323
340 339 339 339 336 333 334 331 332 333 332 333 335 335 332 333 330 328 328 327 326 326 326 330 327 326 322 323 327 325 324 323
339 338 338 336 333 331 330 330 331 331 332 331 331 332 334 333 329 326 326 326 325 326 325 326 326 326 322 320 323 325 326 323
337 336 336 335 333 332 331 330 332 332 333 332 331 330 332 328 328 325 326 324 322 322 324 323 325 326 319 319 313 317 322 323
336 335 335 334 333 332 331 328 330 328 330 331 330 332 332 331 327 325 324 323 321 322 323 323 321 325 325 319 312 311 316 322
336 336 334 334 334 330 328 326 323 328 328 330 330 331 331 330 326 324 323 323 321 322 325 324 324 321 325 324 323 320 314 314
336 335 334 334 333 332 329 327 327 329 328 328 327 328 326 325 325 323 323 322 321 322 323 325 325 323 323 324 323 322 320 317
334 334 333 333 333 332 329 328 327 327 326 325 324 324 323 321 323 323 324 323 322 322 324 326 326 326 325 324 322 319 318 317
333 333 330 332 332 330 329 328 328 325 326 325 323 320 320 320 320 320 321 323 324 324 324 325 326 325 325 322 323 323 322 319
331 331 327 331 331 330 329 329 327 328 328 326 325 323 323 321 320 320 319 321 322 324 325 326 326 326 325 325 324 321 321 323

GFSFLT2_sfc_thetae_084.txt.gz
Theta_e
349 346 345 344 344 345 345 346 346 348 348 346 347 343 342 343 342 341 341 342 342 342 343 342 342 341 339 336 335 338 335 337
351 348 347 346 345 342 344 345 344 345 345 343 341 341 342 341 340 336 338 338 340 342 341 341 339 337 337 335 333 336 334 335
352 350 349 349 348 345 343 344 343 342 342 340 337 342 340 339 338 338 338 336 336 339 339 337 334 334 332 331 333 332 333 333
347 347 349 350 345 346 345 345 344 343 343 341 343 342 339 338 335 336 336 335 336 337 336 334 333 333 331 330 330 330 331 331
347 345 349 349 345 348 346 345 344 343 343 342 342 342 337 333 330 332 334 336 335 336 334 334 335 333 331 331 331 330 330 329
347 345 345 346 344 344 345 345 344 342 342 341 340 338 334 332 331 332 333 334 335 334 333 335 335 334 332 331 330 327 328 328
342 345 344 345 345 343 344 344 341 341 342 341 340 338 335 336 334 333 333 334 334 332 332 333 333 332 331 330 326 326 328 327
342 343 344 344 342 342 342 343 343 342 341 340 339 337 335 334 334 333 333 333 333 332 331 331 330 330 330 327 325 324 326 325
341 343 343 341 339 340 339 341 341 340 339 339 338 337 335 333 332 332 332 334 332 330 329 330 329 330 326 326 325 324 321 324
341 341 340 340 339 338 337 336 338 337 338 338 337 336 335 333 331 331 333 332 329 328 327 328 328 327 324 323 322 320 320 323
339 340 339 340 339 336 335 334 337 336 336 337 336 335 334 333 332 332 330 329 327 327 327 327 325 325 322 321 320 318 319 321
340 339 338 338 337 333 332 332 334 335 333 333 334 334 333 333 330 330 329 328 327 327 326 326 325 323 322 321 321 319 318 318
339 337 336 337 331 329 328 326 329 330 331 331 332 332 332 331 329 328 328 327 326 326 325 324 323 323 319 319 320 321 319 318
338 336 336 336 332 330 330 329 329 329 330 330 331 332 332 330 329 327 327 325 325 324 324 322 322 323 316 315 311 315 318 319
337 335 336 335 333 331 329 330 329 326 327 329 330 330 330 330 329 326 325 325 324 324 323 322 319 321 319 315 310 308 312 317
336 336 334 334 333 329 326 324 323 325 325 328 329 330 329 329 327 326 325 325 324 323 324 323 321 317 320 320 317 314 309 308
336 335 333 333 332 330 326 324 325 325 326 326 326 327 329 329 326 325 324 324 323 323 323 322 322 319 318 318 316 317 316 312
335 333 332 331 331 329 328 325 324 324 324 323 325 323 323 324 325 324 324 323 321 322 323 323 322 321 320 319 317 315 315 313
334 332 330 331 330 330 328 328 325 325 324 324 322 321 320 321 322 322 322 322 322 321 322 322 322 320 320 320 319 318 318 317
332 331 329 330 330 329 328 327 325 325 326 325 323 321 321 321 321 321 321 322 322 322 321 322 322 321 320 320 319 320 319 318

GFSFLT2_sfc_thetae_087.txt.gz
Theta_e
340 342 345 344 343 343 344 346 347 347 347 347 348 346 343 344 344 342 340 340 340 341 342 343 343 341 340 337 335 337 335 336
339 338 340 339 339 341 342 343 343 344 345 343 343 342 343 342 340 340 341 338 337 339 340 341 341 338 337 334 334 336 335 334
340 339 339 339 338 341 343 344 343 342 342 340 337 338 338 339 335 337 338 334 337 338 338 337 336 336 334 334 332 331 333 333
341 341 341 341 344 338 337 341 338 338 339 336 337 335 335 336 333 336 336 336 336 337 337 335 334 331 330 331 328 328 330 332
341 340 342 341 339 338 338 338 338 337 336 335 337 336 333 334 333 334 333 335 334 335 334 334 333 331 328 327 328 330 330 332
341 340 342 340 338 340 339 339 337 336 335 336 336 333 331 328 327 328 331 332 333 333 332 333 332 331 329 328 327 328 327 329
340 340 341 340 336 336 336 338 338 337 335 336 336 332 331 329 326 328 331 332 333 331 331 332 332 331 329 329 326 326 327 329
341 340 340 340 336 334 334 335 335 335 335 335 335 334 331 330 329 328 329 332 334 332 331 330 331 331 329 328 325 325 325 327
340 339 340 339 336 334 333 333 334 333 334 334 335 334 333 330 330 330 330 331 331 330 328 328 328 330 329 327 325 324 324 325
340 340 337 336 335 333 332 332 332 331 332 333 333 333 334 331 330 329 330 330 329 328 328 326 327 327 326 325 322 324 323 323
337 337 335 334 334 332 330 331 330 329 330 331 332 331 331 330 328 328 330 329 328 326 324 325 326 326 326 323 318 320 322 323
336 336 334 332 333 330 327 329 331 328 328 329 334 331 331 328 326 326 328 326 324 324 325 325 325 325 326 322 317 318 319 321
335 333 334 331 329 326 325 324 329 326 326 328 328 328 329 325 326 328 327 325 326 325 325 324 323 324 319 317 317 315 314 318
334 333 333 330 329 327 323 323 327 323 324 326 330 327 327 326 327 327 326 326 325 325 324 323 323 323 317 315 310 313 316 314
332 332 332 329 328 327 325 323 322 321 323 324 328 329 328 327 327 327 326 326 324 324 324 322 320 322 320 314 309 307 312 314
332 332 331 328 327 325 324 322 320 320 322 325 325 326 328 328 328 327 326 326 325 324 324 323 321 318 318 318 316 314 309 307
331 331 331 329 327 325 322 319 319 319 321 322 323 325 326 325 325 325 325 325 325 325 324 322 322 320 318 316 313 314 314 310
331 330 330 328 326 324 323 320 319 319 319 320 320 322 324 325 325 325 325 325 324 324 324 323 321 321 320 318 315 313 312 311
329 328 327 327 325 324 323 322 319 319 320 320 321 319 318 320 323 323 323 324 323 324 323 322 322 320 320 319 319 316 316 316
328 326 326 326 325 324 325 322 321 321 322 322 320 320 319 320 320 322 322 323 322 323 323 322 322 320 319 319 319 319 318 316

GFSFLT2_sfc_thetae_090.txt.gz
Theta_e
340 342 345 343 342 342 343 345 346 346 346 347 348 347 346 346 346 345 344 342 341 342 341 341 341 340 339 337 336 337 335 335
338 338 339 339 341 340 342 343 344 344 345 344 343 344 344 343 342 342 341 341 340 340 339 339 339 338 337 335 335 336 335 335
337 337 336 336 337 341 342 343 342 341 342 341 338 340 339 339 338 340 337 337 338 338 337 335 336 336 335 334 334 334 333 334
336 336 336 336 341 337 337 341 339 339 339 337 337 335 335 335 335 336 334 334 336 337 337 335 335 334 333 333 329 330 332 332
337 337 337 337 338 335 335 339 336 335 335 333 333 334 336 332 330 333 331 334 333 334 334 334 333 331 332 328 327 329 330 331
339 339 339 339 339 336 335 336 335 334 333 334 335 333 333 332 332 331 331 330 330 330 331 333 332 332 330 327 327 328 330 330
339 340 340 340 338 337 336 336 335 334 332 335 335 332 329 330 328 330 331 331 331 329 329 332 332 331 329 327 326 326 329 331
339 338 341 340 338 337 336 337 336 333 333 335 333 332 329 328 326 329 330 330 331 330 328 329 331 331 329 327 325 326 327 328
338 338 339 339 337 337 335 334 335 334 333 333 333 331 329 327 326 326 329 330 330 331 328 328 327 330 328 326 326 325 326 326
339 339 338 337 336 336 334 332 333 333 333 333 333 332 331 329 328 326 328 331 330 329 328 326 324 325 326 324 325 324 325 325
337 338 337 336 334 335 333 331 331 330 332 332 331 332 331 330 328 328 328 329 329 327 326 325 323 323 325 325 323 322 323 325
336 337 337 335 334 332 330 330 329 332 329 331 330 331 329 329 328 327 330 329 327 326 325 323 323 324 327 325 318 321 322 322
334 335 334 333 331 328 327 327 328 326 328 327 329 330 329 328 325 327 330 327 325 324 323 322 323 325 323 318 316 319 320 320
333 333 332 333 331 330 327 326 326 329 324 324 326 325 326 326 326 326 327 325 324 324 323 322 321 325 319 315 309 312 314 317
332 332 331 332 330 325 323 321 321 323 325 321 323 325 325 326 327 327 326 325 323 324 323 322 320 321 322 315 309 307 311 313
332 333 331 329 327 325 323 322 320 322 325 320 321 324 324 325 327 326 326 326 324 323 324 323 323 318 319 320 316 314 308 306
332 332 329 328 328 325 323 320 318 321 320 319 319 320 323 325 326 326 325 325 325 324 324 322 323 320 317 316 314 314 313 309
331 330 328 327 326 324 322 320 318 319 319 319 321 322 323 324 326 326 325 325 324 324 324 323 322 321 319 317 315 313 312 310
329 328 325 326 324 323 322 321 320 319 319 319 321 321 322 323 324 324 324 325 324 325 324 323 322 320 319 317 317 316 316 315
328 327 323 323 323 322 322 321 320 320 320 321 320 320 321 321 322 323 323 324 324 324 324 323 322 321 320 319 318 318 317 316

GFSFLT2_sfc_thetae_093.txt.gz
Theta_e
341 343 345 344 342 343 343 344 345 346 346 347 348 347 346 347 347 347 346 343 343 343 342 342 342 341 339 335 337 337 334 334
338 341 342 342 342 341 341 343 343 343 345 344 343 344 345 345 345 345 344 342 342 342 341 339 340 338 336 335 334 336 334 333
337 339 340 340 341 341 342 344 343 343 343 342 339 341 340 341 340 341 341 339 339 340 339 338 336 335 335 335 334 333 333 333
334 335 336 335 339 338 338 341 341 340 339 338 338 336 335 335 337 338 338 336 338 336 336 333 334 333 334 335 331 331 332 332
334 333 335 336 337 338 339 341 335 335 335 335 333 334 336 330 332 332 330 333 331 334 332 331 330 332 332 332 329 330 330 331
334 334 334 335 336 336 337 337 337 334 332 332 335 335 334 332 331 332 328 331 330 331 332 332 332 331 332 330 328 328 328 329
335 334 334 334 334 334 334 336 336 334 331 334 336 333 331 332 332 330 329 329 328 326 329 330 329 331 331 329 327 327 329 329
336 336 336 336 336 334 333 333 334 332 331 335 335 332 330 330 328 329 328 329 329 326 327 328 328 330 329 328 327 327 328 328
336 337 338 337 336 335 333 334 333 332 332 335 333 332 328 328 327 328 328 329 329 325 324 326 329 330 328 327 326 326 326 326
337 338 339 337 336 336 335 334 334 333 332 334 333 330 328 327 326 327 328 329 329 328 325 326 327 328 325 325 325 326 325 325
332 337 336 337 336 336 334 333 334 333 332 333 333 330 328 327 326 326 328 327 327 328 326 326 324 325 324 325 324 323 325 326
326 336 337 337 334 332 331 330 330 332 332 332 332 332 330 329 328 326 327 326 327 327 325 326 323 324 324 322 321 322 324 324
319 333 335 335 332 331 330 329 329 330 330 331 330 331 330 329 328 326 326 326 325 326 326 323 321 324 323 318 317 320 322 322
317 331 334 334 333 332 330 332 330 330 330 330 331 328 328 328 327 326 327 327 326 324 324 321 322 324 320 315 310 313 316 319
323 329 333 334 333 327 323 324 325 325 326 328 327 326 326 327 325 328 327 326 324 324 323 322 320 323 318 315 309 308 312 314
323 330 332 333 331 327 324 325 324 326 328 328 324 324 324 325 324 326 327 326 323 323 324 323 321 319 321 320 317 315 310 307
322 330 331 332 329 328 325 323 323 321 322 324 321 322 324 326 327 326 325 325 324 324 324 323 322 320 320 317 315 315 314 311
322 328 329 330 328 326 325 321 319 320 320 321 319 321 323 325 325 325 326 324 324 323 323 323 323 322 320 319 315 313 311 310
317 329 328 327 327 324 323 320 320 319 320 319 319 320 321 322 325 325 324 325 324 324 323 323 323 321 320 318 317 316 316 314
310 329 326 326 325 323 322 321 320 320 320 319 320 321 322 322 322 324 325 324 324 324 324 323 323 322 320 318 317 317 317 316

GFSFLT2_sfc_thetae_096.txt.gz
Theta_e
343 345 346 344 343 343 343 344 345 345 346 347 348 347 347 348 348 348 348 346 345 345 343 343 343 342 339 337 337 338 335 336
341 342 344 342 342 341 342 342 343 343 345 344 344 344 345 346 345 346 346 343 343 343 342 342 342 340 337 335 336 337 335 333
338 339 340 342 342 341 343 344 343 342 343 342 340 340 341 342 341 343 343 339 340 341 340 339 338 337 336 336 336 335 333 332
336 336 337 338 339 341 340 343 344 343 343 340 338 337 337 338 338 340 339 338 339 337 338 336 335 333 334 335 333 333 332 331
333 334 335 335 336 338 340 339 340 340 339 337 335 335 336 332 334 333 333 336 334 334 332 330 329 332 332 332 332 332 333 332
332 332 333 334 336 336 337 337 337 337 336 334 337 337 336 332 333 329 328 328 330 330 330 328 328 331 332 331 330 331 331 331
334 333 333 333 334 335 335 336 337 337 335 335 338 337 335 333 332 331 326 327 329 329 329 330 329 331 332 330 329 329 330 330
336 334 334 332 333 333 333 334 335 334 335 336 337 336 334 332 332 331 330 329 328 328 327 329 330 330 329 329 328 328 329 330
331 335 334 332 333 332 332 333 333 332 333 335 335 334 332 331 329 328 328 329 327 323 326 327 327 328 328 328 328 327 328 328
315 336 335 333 333 334 332 331 332 332 333 333 333 332 331 329 327 328 328 328 328 326 326 326 327 326 327 326 326 326 327 327
310 330 335 335 334 335 334 331 332 332 332 333 332 331 329 328 327 327 328 328 328 327 326 326 325 325 325 325 325 325 325 327
304 323 334 336 337 335 334 333 333 334 332 332 331 330 327 327 327 326 328 327 327 327 325 325 325 325 325 324 324 325 325 325
300 312 331 335 336 332 331 330 331 333 333 332 332 331 330 329 328 325 326 326 326 326 325 324 322 325 322 318 318 322 323 324
306 305 326 334 335 334 331 332 332 333 332 332 332 331 330 330 328 326 325 325 325 325 325 323 323 325 320 316 311 314 318 322
307 308 320 332 334 334 325 328 326 325 328 328 330 331 329 329 328 326 326 326 324 325 325 323 321 323 321 316 309 308 313 316
306 310 314 331 334 332 329 328 325 327 327 328 328 329 328 329 327 326 325 327 326 325 325 324 322 319 320 320 317 315 311 308
306 309 316 330 333 331 327 327 327 326 327 320 325 326 327 327 326 325 326 326 325 324 324 323 323 321 321 318 316 315 315 312
303 308 320 330 332 330 326 326 320 324 325 324 325 325 325 326 327 326 325 325 324 324 324 323 322 322 322 320 319 314 312 311
301 305 314 329 329 328 326 324 321 323 324 324 323 323 323 324 324 323 323 324 324 324 323 323 323 322 321 320 320 317 316 316
299 302 307 327 327 327 326 320 320 320 321 322 323 323 323 324 323 323 323 322 324 324 323 322 322 322 321 320 319 317 317 316

GFSFLT2_sfc_thetae_099.txt.gz
Theta_e
350 351 350 344 343 343 343 344 345 346 346 347 349 348 347 348 349 348 349 348 347 346 345 344 344 344 341 338 338 339 343 345
346 348 348 350 351 341 342 342 343 343 345 344 344 345 346 346 346 347 347 344 345 343 343 343 343 341 339 337 337 338 342 344
342 344 345 347 347 348 344 343 343 342 344 343 342 350 351 350 346 344 342 340 341 341 341 340 339 338 337 337 337 342 340 340
339 340 342 343 342 344 348 349 348 348 349 350 350 350 350 348 345 341 340 338 339 338 338 338 337 344 342 338 343 341 339 337
338 337 340 340 340 340 343 344 344 345 345 345 349 349 348 348 349 347 348 341 346 341 342 343 343 343 342 342 340 339 337 337
340 339 336 337 338 338 340 340 341 342 341 343 342 343 344 344 343 345 346 344 342 344 342 343 341 341 341 340 337 336 334 335
340 340 338 337 336 337 338 339 339 339 340 341 343 341 340 340 340 340 342 342 340 340 339 339 339 339 340 338 336 335 332 334
336 340 340 339 339 337 336 338 339 338 338 339 342 340 339 338 336 336 336 337 337 336 334 336 336 337 335 335 334 334 330 331
313 334 342 340 339 339 338 338 337 336 336 339 340 340 339 337 335 335 335 335 334 332 331 332 334 336 335 332 334 331 329 329
311 312 336 341 340 338 339 338 337 335 335 337 339 338 337 335 334 334 336 333 331 329 329 329 330 329 329 329 334 330 329 328
313 312 318 337 340 341 340 338 337 336 336 335 337 337 334 334 333 333 336 333 331 329 328 328 328 328 328 329 330 329 328 328
315 314 313 329 339 340 339 338 339 339 336 335 336 336 333 332 332 332 333 332 329 329 326 328 329 328 327 327 329 329 329 327
313 313 316 316 336 335 332 330 333 335 336 335 335 334 332 330 330 330 331 330 329 328 327 326 326 328 324 321 322 326 325 327
310 312 314 314 327 335 335 332 333 336 336 334 335 333 331 329 329 329 329 328 328 328 326 324 325 327 321 318 313 316 321 325
307 309 311 314 318 334 335 334 334 331 333 332 333 334 331 330 331 330 328 329 327 327 327 324 322 325 324 319 311 311 314 319
304 306 310 314 319 329 331 327 325 331 333 332 332 330 329 328 330 331 329 328 327 329 328 326 325 321 323 326 322 321 314 310
302 304 306 312 319 326 333 329 332 335 334 330 330 332 329 323 322 328 328 328 329 330 326 326 325 324 322 319 318 319 320 316
299 301 303 308 320 327 332 330 331 331 330 329 331 329 324 324 326 328 329 328 329 330 328 326 325 325 324 321 319 317 317 319
298 299 301 306 311 330 331 330 331 331 330 329 328 326 323 324 328 327 327 329 329 331 326 327 325 324 323 322 322 321 324 322
295 298 299 304 308 330 330 328 328 331 332 328 328 327 327 328 328 329 328 329 326 327 326 326 326 324 324 323 322 322 322 322

GFSFLT2_sfc_thetae_102.txt.gz
Theta_e
355 356 352 345 344 344 343 345 345 346 347 348 350 349 349 349 350 350 349 348 348 349 346 345 345 344 343 340 339 341 346 344
354 353 353 355 355 343 343 343 344 344 346 346 345 346 347 348 348 348 348 347 347 345 343 344 343 342 340 338 338 339 345 345
350 350 350 351 354 352 345 344 343 343 345 344 343 352 353 353 348 345 347 343 344 342 341 342 341 340 339 338 337 346 347 346
350 350 348 348 346 349 352 353 352 352 351 352 351 352 352 348 346 343 343 341 341 341 339 339 340 348 345 339 345 344 347 345
347 349 351 351 347 348 347 349 350 351 353 352 352 351 352 350 349 350 351 343 347 344 345 346 345 345 346 343 343 344 344 342
344 347 349 350 348 346 346 345 346 345 347 350 350 349 349 349 347 347 348 348 346 346 344 345 345 344 344 343 343 342 340 339
329 344 347 348 348 346 346 345 346 347 346 346 346 346 346 347 346 347 347 346 347 345 344 343 344 342 343 341 340 341 340 339
319 327 343 346 345 346 345 345 346 344 343 343 345 345 347 343 344 344 344 345 345 344 343 343 343 342 340 340 340 340 340 340
323 321 328 341 344 345 344 343 344 343 342 344 343 345 346 344 341 341 343 344 344 344 343 342 340 339 339 339 339 338 338 339
323 323 323 326 339 341 344 344 344 343 343 342 343 343 343 343 339 340 340 341 339 338 336 334 334 337 337 338 337 337 336 338
323 325 325 323 326 337 341 345 345 344 342 342 344 343 342 342 339 339 340 338 337 335 333 333 332 335 335 335 336 334 334 333
321 322 324 326 324 328 337 338 343 344 342 341 342 343 341 341 340 338 338 335 337 335 333 332 331 331 330 328 331 334 334 331
317 319 321 322 322 319 330 333 338 339 341 342 342 342 341 340 338 336 335 334 334 333 331 328 329 332 328 325 326 330 329 329
315 316 317 318 320 321 325 332 334 336 340 343 341 340 341 338 336 333 334 333 332 333 332 326 328 331 323 321 316 318 327 328
312 313 314 316 318 320 322 331 334 336 336 339 340 340 339 337 335 332 332 333 332 333 331 328 324 327 328 324 315 316 317 323
308 308 310 311 315 317 321 322 328 332 334 336 337 336 335 335 332 331 331 332 332 333 332 331 329 323 326 329 330 323 318 312
302 303 305 306 308 310 318 321 332 333 334 333 333 333 333 334 332 332 331 332 331 333 334 334 332 327 325 324 325 325 327 321
300 299 300 303 305 308 313 323 327 332 332 331 330 331 331 332 333 334 332 331 330 329 331 334 332 330 327 326 325 322 322 320
298 297 297 300 302 305 313 324 325 333 332 332 328 328 329 331 333 328 329 330 331 330 329 333 332 329 327 324 324 323 324 322
297 294 295 298 301 306 312 328 329 335 333 332 330 330 332 336 331 327 327 329 330 331 330 334 333 332 328 326 324 324 328 322

GFSFLT2_sfc_thetae_105.txt.gz
Theta_e
357 358 352 347 346 345 344 346 347 348 349 350 351 350 350 350 351 351 352 351 349 350 347 346 345 345 344 342 340 342 345 342
356 357 355 355 353 345 344 344 345 346 347 347 347 348 348 348 348 350 350 349 347 348 346 345 344 343 341 340 339 339 345 343
355 355 355 355 355 351 346 345 345 344 346 345 344 354 354 353 348 346 347 344 344 343 341 342 341 341 340 339 339 345 343 343
351 352 352 353 352 355 353 351 350 349 349 350 351 352 352 350 348 344 345 343 343 342 341 339 340 346 345 340 344 343 346 345
349 352 352 351 351 351 351 352 351 352 352 352 352 351 352 349 349 349 351 344 348 346 346 347 346 344 346 345 343 344 345 344
345 348 351 353 353 350 351 350 352 350 351 355 353 350 351 350 346 348 350 348 347 347 346 346 344 344 345 345 345 344 342 341
323 337 346 350 351 350 350 349 349 350 350 352 350 348 350 347 346 345 347 345 347 346 343 344 344 344 344 343 343 343 343 338
321 323 330 342 347 350 348 348 348 348 348 348 349 349 348 346 345 344 343 345 348 346 345 344 344 344 344 343 342 343 341 341
324 327 325 328 340 344 346 346 346 344 345 348 346 346 349 349 344 344 343 345 348 346 346 346 343 342 341 343 341 342 340 339
325 325 328 329 328 333 341 342 346 344 344 346 346 346 349 348 344 342 344 344 345 344 344 342 340 340 339 338 341 340 340 339
323 325 326 328 329 328 332 343 344 345 345 346 347 346 346 347 344 342 344 342 343 341 341 340 338 338 337 338 339 338 338 337
322 322 324 326 326 327 327 329 341 344 343 346 348 348 347 347 342 343 342 338 340 337 336 337 336 336 334 333 335 337 337 334
319 320 321 322 321 322 323 321 331 338 340 344 348 346 348 344 342 343 341 336 339 336 335 334 333 335 331 329 332 334 334 333
317 317 318 318 319 320 322 324 326 332 339 342 345 343 344 340 341 340 340 336 338 335 334 331 332 332 326 323 317 320 327 331
313 313 314 316 318 318 320 323 325 327 337 338 340 344 344 341 341 340 338 337 335 334 334 330 327 329 329 324 316 316 319 326
312 312 311 313 315 314 314 316 319 322 330 335 338 342 340 340 342 338 336 337 334 334 334 332 332 325 328 329 331 327 320 315
310 309 309 310 310 310 308 311 318 324 327 335 338 340 339 339 340 337 334 334 334 332 333 333 334 330 326 325 329 328 328 322
308 307 306 306 304 304 304 306 311 319 325 331 336 339 337 336 335 335 335 336 333 332 334 336 335 333 332 329 327 324 322 323
304 302 301 302 299 300 302 305 308 314 322 328 335 336 332 331 333 331 334 333 326 324 328 333 335 333 332 331 328 330 329 326
300 299 299 298 297 298 301 304 308 315 322 329 332 334 334 331 331 331 332 332 331 332 333 334 333 332 332 332 331 330 330 328

GFSFLT2_sfc_thetae_108.txt.gz
Theta_e
356 353 349 347 346 345 345 347 348 349 350 350 351 350 349 350 350 351 352 351 350 350 348 347 345 345 344 342 340 341 341 341
358 355 352 350 349 345 344 345 346 347 348 348 347 348 349 349 348 349 350 349 348 349 347 345 344 343 342 340 338 340 341 341
354 352 352 352 351 348 345 346 346 345 347 347 344 352 350 350 347 346 348 345 344 346 345 343 342 341 341 340 339 341 340 339
352 351 350 352 351 350 348 348 346 347 347 348 350 351 352 350 347 344 345 343 343 343 342 340 339 342 340 339 339 341 339 339
350 351 349 348 349 351 349 348 347 347 347 347 348 348 349 347 347 346 346 343 346 342 341 343 343 342 341 341 340 340 339 338
348 350 350 349 349 348 351 351 348 347 347 348 348 346 346 347 345 346 347 346 344 343 343 343 342 342 341 341 340 339 339 337
324 330 345 349 347 349 348 347 349 348 350 349 347 346 345 345 344 344 345 345 344 342 342 342 341 340 341 340 339 339 338 337
325 328 329 329 346 346 346 348 347 349 348 348 349 348 344 343 343 341 344 343 343 342 341 339 339 339 338 338 338 338 338 336
326 328 331 331 330 334 345 345 346 345 346 347 346 346 346 344 342 340 340 342 340 342 340 341 339 338 337 337 337 338 337 336
325 325 328 330 331 330 329 331 344 344 344 345 346 345 344 343 342 339 341 340 341 341 340 338 337 336 335 336 336 336 336 335
323 325 325 326 329 329 329 329 327 342 343 342 344 343 342 343 342 341 341 339 339 340 338 337 335 334 336 334 334 334 333 335
321 321 323 324 324 327 327 326 326 327 338 342 343 344 342 342 342 341 340 339 338 339 336 337 335 334 332 332 332 332 333 333
317 317 318 318 318 318 319 320 323 324 331 337 341 342 342 341 341 340 339 337 336 337 334 333 331 332 328 328 327 329 331 329
314 313 314 314 315 316 317 317 318 321 324 326 335 338 339 340 340 339 338 336 335 335 333 330 331 332 326 321 316 320 324 328
311 311 311 312 313 313 314 315 316 318 320 321 324 336 338 339 340 339 336 335 333 334 332 329 327 330 328 319 313 312 315 324
310 310 309 310 310 308 308 308 308 312 315 320 324 336 336 338 339 338 335 334 332 332 333 330 328 325 327 326 324 321 314 312
308 307 306 306 306 305 303 302 306 309 313 315 320 324 335 336 337 336 334 333 331 333 332 330 328 325 325 324 324 324 322 316
304 303 302 303 303 301 299 299 301 303 306 310 314 322 329 334 334 337 336 333 331 331 326 330 328 328 327 325 322 322 320 318
301 300 300 301 301 298 297 298 299 300 303 306 310 316 324 327 333 334 334 332 331 331 330 329 328 327 327 325 326 324 324 322
299 298 298 299 298 297 296 297 299 301 304 307 309 315 322 328 330 332 332 332 331 331 329 327 324 323 324 327 326 326 326 323

GFSFLT2_sfc_thetae_111.txt.gz
Theta_e
346 346 347 345 344 345 345 347 348 348 348 349 350 349 348 349 349 350 350 350 349 349 348 346 345 344 343 341 339 340 339 337
346 345 345 343 343 343 344 345 346 346 347 347 346 347 348 348 347 348 349 348 348 348 346 345 343 342 341 339 338 339 339 336
348 347 346 344 343 344 344 345 345 345 347 346 344 347 347 348 346 345 347 344 344 345 344 342 341 340 340 339 339 338 339 338
343 346 346 347 348 343 341 344 343 344 345 346 348 346 347 349 345 343 344 343 343 343 342 340 339 339 338 339 336 338 338 337
343 345 345 347 347 343 342 342 341 342 342 344 344 347 346 346 345 344 343 343 343 342 340 340 339 339 337 337 337 337 336 336
344 344 343 341 343 347 345 342 341 341 341 342 343 342 341 344 343 343 342 343 341 341 340 339 339 340 339 338 337 337 336 335
319 335 338 342 341 342 344 344 343 343 342 343 344 342 341 341 342 343 343 343 342 340 340 340 339 339 339 337 338 337 336 335
317 319 321 323 327 334 339 338 340 343 343 343 344 344 342 341 340 340 342 343 342 341 339 339 339 339 337 336 336 336 336 333
318 320 320 321 325 324 325 333 340 338 340 341 344 343 341 341 339 338 341 342 341 340 337 338 337 337 335 335 334 335 334 333
317 319 318 318 319 321 322 324 324 331 338 339 340 342 341 340 338 335 335 340 338 339 337 335 335 334 332 332 333 333 334 333
314 315 315 316 317 318 319 320 321 323 327 335 339 341 341 340 338 337 336 335 336 336 334 336 333 333 332 331 331 332 332 333
312 313 312 312 313 315 315 316 318 319 320 324 336 339 341 339 338 338 336 335 332 334 335 334 335 333 333 330 329 332 332 329
309 309 309 309 309 309 310 311 313 314 316 319 320 333 338 339 338 337 339 337 335 334 334 333 327 331 326 324 323 329 329 328
306 306 306 306 308 308 308 309 311 313 315 317 318 320 324 337 338 337 338 336 334 333 333 328 327 330 323 321 318 319 323 329
304 304 304 304 305 305 304 305 306 307 309 311 313 316 319 324 336 337 337 335 334 332 329 329 324 326 325 318 312 310 312 317
302 302 301 302 302 301 299 298 298 301 303 307 309 311 314 319 325 334 336 334 331 328 322 322 318 323 325 326 319 316 310 311
300 300 300 300 300 299 297 296 297 300 301 302 305 307 311 315 321 328 331 332 331 323 320 323 326 326 320 324 324 319 316 311
297 298 298 299 298 297 296 295 296 296 298 299 302 304 307 311 318 325 330 330 330 328 325 326 326 326 326 325 322 320 319 316
297 295 294 295 296 296 295 294 295 295 297 299 301 303 306 308 315 320 326 328 329 328 328 328 327 325 325 324 324 324 321 321
293 293 291 292 294 294 294 294 295 296 298 300 301 303 307 310 312 318 321 326 328 329 328 325 322 326 324 325 325 324 323 321

GFSFLT2_sfc_thetae_114.txt.gz
Theta_e
344 345 347 344 343 344 344 346 346 347 347 348 349 348 347 348 349 349 349 349 348 348 347 346 346 344 342 340 338 340 336 337
342 343 344 343 343 342 343 344 344 345 346 345 345 345 346 346 346 347 348 347 347 347 346 345 344 341 340 339 337 338 337 336
341 341 342 341 342 343 343 345 344 344 345 344 343 347 346 346 345 344 345 343 344 345 344 342 340 339 339 338 337 337 337 337
343 342 341 341 344 342 341 344 345 346 347 347 347 347 345 347 344 341 343 342 342 342 342 340 339 339 337 338 336 337 337 335
341 342 342 341 342 340 339 340 339 341 343 345 345 344 346 345 344 343 342 342 342 342 341 341 339 338 335 335 335 336 335 336
341 341 340 341 341 340 339 339 338 339 340 341 343 343 343 344 344 342 341 342 341 341 341 339 338 338 337 336 335 335 335 335
333 334 330 335 342 342 343 341 339 339 339 341 342 341 341 343 343 342 341 341 341 340 339 338 338 337 338 336 336 335 335 334
318 319 320 323 324 325 332 338 338 338 339 339 341 340 340 340 342 341 341 341 341 340 339 338 337 337 336 336 336 336 335 333
316 317 316 317 317 320 322 324 328 334 339 338 339 341 340 340 339 340 342 342 341 340 338 337 337 336 335 335 335 335 334 332
312 314 312 312 313 315 317 319 320 323 325 331 337 342 342 339 339 339 338 341 340 339 338 335 335 335 334 332 332 332 333 331
309 309 309 310 310 311 312 313 315 316 318 320 328 334 338 339 338 338 336 336 338 338 337 335 333 333 333 330 331 331 331 332
307 307 307 308 308 308 309 310 311 313 313 316 318 319 326 334 337 337 335 333 334 335 336 335 333 333 332 330 330 331 331 330
305 304 304 304 304 304 305 304 306 308 310 313 315 317 319 319 331 336 334 334 334 332 332 329 329 331 325 322 324 328 329 329
301 301 301 301 302 302 302 302 304 305 308 308 310 311 313 314 317 325 335 334 332 330 332 329 331 331 328 325 319 321 324 327
299 299 299 300 300 300 299 299 300 301 301 302 305 306 308 310 312 316 318 331 334 333 329 329 326 326 325 321 314 314 317 320
298 299 298 299 298 297 295 294 293 297 298 300 301 304 305 308 311 313 316 321 328 333 329 327 321 316 317 319 320 317 311 311
296 295 295 296 296 295 294 293 294 295 298 299 300 302 304 306 307 309 312 315 321 331 326 319 319 315 314 317 317 321 317 312
294 293 291 293 294 293 295 293 293 294 295 297 299 302 303 306 307 308 311 315 320 327 327 324 319 318 316 320 320 319 317 314
293 292 290 290 291 291 293 293 294 294 294 296 296 298 300 303 305 308 309 312 317 325 323 321 321 320 319 319 320 319 320 320
290 290 290 290 290 290 292 292 293 293 293 294 295 298 300 302 304 307 309 311 314 320 326 324 321 323 323 322 321 323 324 322

GFSFLT2_sfc_thetae_117.txt.gz
Theta_e
341 344 346 345 343 344 344 345 345 346 347 347 348 347 347 348 348 348 349 349 348 349 347 346 346 344 343 340 338 340 337 336
339 340 342 342 342 341 342 343 344 344 345 345 345 345 345 346 346 347 347 347 347 347 346 345 345 343 340 339 337 338 336 335
338 338 339 339 340 342 343 345 344 343 344 343 341 345 344 344 344 344 345 343 344 345 344 342 341 340 339 338 338 336 335 335
338 338 338 338 343 340 340 342 344 344 345 343 345 346 344 344 343 341 342 341 341 342 342 340 340 337 337 338 335 335 335 335
340 339 339 338 339 337 337 339 342 345 344 345 345 343 344 344 344 342 341 341 340 341 340 340 339 338 335 334 334 334 334 335
339 340 340 339 341 337 336 338 337 338 342 343 343 342 342 342 342 343 341 340 340 340 341 341 339 337 335 334 333 333 334 334
332 327 329 336 339 339 341 338 336 336 336 340 342 341 341 341 341 342 341 340 339 339 340 340 338 337 336 335 334 333 333 333
317 317 318 321 321 323 326 329 335 339 336 337 338 339 339 340 341 340 340 340 339 339 339 339 339 338 337 335 335 334 333 333
313 313 313 313 314 315 317 319 324 326 327 332 336 338 338 338 338 340 341 340 339 339 337 337 337 337 336 335 335 335 334 333
309 311 310 309 310 311 313 314 315 316 322 324 327 329 332 338 338 338 340 339 338 338 337 336 336 336 335 334 334 334 334 333
305 306 306 307 307 308 309 309 310 312 313 315 319 321 323 324 330 338 338 337 337 337 337 337 335 335 334 334 332 332 333 333
304 303 303 303 304 305 305 304 304 307 308 310 312 315 316 317 320 327 334 333 334 335 334 335 334 334 333 332 330 331 332 332
300 300 300 301 300 299 300 298 301 302 305 305 306 309 310 310 312 314 320 330 331 330 331 330 332 333 327 324 324 326 327 330
298 298 298 298 298 298 298 297 299 300 301 301 304 303 305 307 307 309 313 315 321 331 331 328 327 329 326 323 319 321 324 328
296 296 296 296 297 296 296 297 296 297 296 298 300 302 303 304 305 307 309 311 312 319 330 330 327 324 327 321 312 315 317 321
293 293 294 295 295 294 293 292 292 293 294 297 299 301 303 304 305 305 306 309 311 315 322 329 329 320 317 319 316 317 313 308
292 291 291 292 292 293 293 293 294 296 296 296 297 301 302 304 306 306 306 307 309 311 314 322 328 327 316 314 315 314 314 311
292 291 290 291 291 292 292 292 292 293 293 294 295 297 299 302 304 305 306 308 309 311 313 319 326 324 321 319 315 313 314 312
291 290 289 289 289 290 292 292 292 292 292 292 293 295 297 299 300 301 303 306 309 310 311 314 322 323 319 318 320 318 317 317
289 289 288 289 289 290 290 291 291 292 292 292 293 294 295 297 298 299 300 303 305 308 311 312 317 323 321 318 318 320 321 319

GFSFLT2_sfc_thetae_120.txt.gz
Theta_e
341 343 346 345 343 344 343 344 345 346 346 347 348 347 347 348 348 349 350 349 349 348 347 346 346 345 343 340 338 340 338 337
337 339 341 342 341 341 342 343 343 343 345 344 344 344 345 346 346 346 348 348 347 348 346 345 344 343 341 339 337 338 337 336
336 337 339 339 339 342 343 344 344 342 343 343 339 343 342 343 343 343 345 343 344 345 344 342 341 341 340 338 338 337 336 335
336 336 337 337 341 339 340 341 342 343 345 345 345 346 345 343 342 341 342 341 342 342 342 340 340 339 338 338 337 336 336 335
337 335 336 337 339 337 337 339 343 344 345 345 345 344 344 343 343 341 338 341 340 340 340 340 339 338 335 335 335 335 335 335
336 336 336 337 338 336 336 338 340 341 343 343 343 341 341 341 341 342 341 341 340 339 341 342 339 338 336 334 334 335 335 335
338 341 340 339 340 340 337 335 337 338 339 341 342 341 339 340 341 341 340 341 340 339 340 341 340 339 338 335 334 334 334 335
317 321 326 324 323 324 325 328 331 336 335 337 339 339 339 339 340 340 340 340 340 340 339 339 338 339 338 337 335 335 334 334
311 313 314 314 315 316 317 319 321 323 325 327 329 330 328 333 338 339 340 340 337 339 338 338 338 337 336 337 337 335 334 333
306 309 308 309 309 311 313 313 314 315 316 320 320 323 324 326 324 329 338 341 338 338 337 336 336 336 335 336 335 336 335 334
302 303 303 304 306 307 307 307 308 308 310 310 312 315 317 316 321 324 328 333 336 336 336 335 334 335 334 335 334 333 334 334
300 300 300 301 302 303 302 302 303 303 305 305 307 308 309 309 312 314 316 323 332 333 331 333 332 333 333 331 333 333 333 332
297 297 297 298 298 298 299 297 300 300 300 302 303 303 305 305 307 308 312 313 315 323 331 326 326 331 327 324 327 330 330 330
293 294 295 295 296 296 296 296 298 299 298 299 300 301 303 303 303 304 307 309 310 312 321 328 328 330 325 320 314 318 325 328
292 292 292 294 295 296 296 295 295 295 295 296 298 301 302 303 303 304 305 306 307 310 313 317 326 327 329 321 315 315 318 323
293 293 293 293 293 294 293 292 292 295 296 296 297 300 300 302 305 306 307 307 307 308 311 312 318 323 322 327 320 318 316 312
293 293 292 291 291 292 292 291 293 294 295 294 295 296 299 301 303 304 304 306 307 308 309 310 312 316 322 317 317 316 314 314
292 291 291 291 290 291 290 290 291 292 292 293 294 295 297 299 299 300 301 303 304 307 310 311 311 313 318 321 318 317 313 312
290 289 288 290 290 290 290 290 290 291 291 291 292 292 293 295 296 297 298 300 301 304 305 307 310 311 313 319 323 321 318 318
288 288 288 289 289 289 290 290 290 290 290 290 290 290 291 293 294 295 297 298 300 302 304 306 310 312 312 315 322 322 321 319

GFSFLT2_sfc_thetae_123.txt.gz
Theta_e
351 353 352 345 343 343 343 345 346 346 347 347 348 348 348 349 350 350 351 350 349 349 348 346 346 344 343 340 339 340 346 346
349 350 353 354 354 342 341 343 343 344 345 345 344 345 346 347 347 348 349 348 347 347 346 345 345 343 341 339 337 339 345 346
350 349 350 351 351 350 345 344 343 343 345 343 343 351 351 350 346 344 346 344 344 346 344 343 342 341 341 339 338 345 347 345
348 348 349 349 347 350 351 351 352 352 351 351 351 350 350 348 346 341 342 341 342 343 343 341 341 349 348 341 346 346 346 345
332 348 349 348 348 349 348 349 349 349 350 349 348 349 349 347 346 348 350 344 349 347 349 350 350 350 348 347 346 346 345 345
321 345 348 348 348 349 346 344 344 345 346 347 348 347 346 346 345 344 344 346 347 348 347 349 350 350 349 347 346 345 344 344
324 339 348 348 347 347 347 345 341 343 344 345 346 345 345 345 344 345 346 344 343 343 345 345 344 346 347 347 346 345 345 345
323 322 323 342 343 345 340 339 337 338 337 339 343 342 341 342 343 344 344 344 344 344 342 342 342 343 341 344 346 346 345 345
314 315 315 317 324 326 330 327 328 328 328 328 329 329 329 335 340 339 342 344 342 344 341 342 340 341 341 340 341 343 344 344
308 307 307 310 314 319 321 322 322 323 322 322 322 322 324 326 327 329 330 334 343 343 339 337 337 338 338 339 339 341 340 343
301 302 302 305 310 312 314 314 315 316 316 316 318 316 317 320 322 324 322 326 330 336 339 338 337 337 338 339 340 338 338 339
298 299 299 301 306 309 310 310 310 310 310 311 311 313 313 315 318 318 319 322 325 331 331 336 337 338 336 336 338 336 340 337
297 296 297 298 300 301 304 305 307 306 306 307 308 309 311 312 312 314 316 317 319 321 323 328 332 334 330 329 329 332 332 333
296 295 295 296 298 300 301 301 305 304 304 305 305 307 309 309 310 311 311 312 315 317 319 321 330 331 326 326 319 325 329 331
294 294 294 294 296 299 300 301 301 301 301 302 303 304 305 307 307 307 308 309 308 309 314 318 320 328 332 325 316 314 324 328
295 293 293 294 295 295 296 293 293 296 298 300 301 302 303 303 304 305 306 307 308 309 311 311 315 318 325 330 333 326 320 318
292 295 293 293 293 295 293 292 293 295 296 297 298 299 300 300 301 301 302 303 305 306 308 310 312 312 317 322 327 328 327 319
293 292 292 292 292 293 291 291 291 291 292 292 293 295 296 297 297 298 299 300 301 302 304 306 309 312 313 316 317 322 321 320
291 290 289 291 292 291 291 291 291 290 289 290 291 291 292 293 294 295 296 297 299 301 302 303 306 308 311 313 315 318 325 321
290 290 290 290 291 290 291 291 290 290 290 289 290 290 291 292 292 293 294 295 297 298 300 302 305 307 309 311 313 317 321 325